GFSWCAN_prec_precacc24_012.txt.gz
Total_Precipitation_Accumulation
0.30 0.06 0.01 0.00 0.00 0.00 0.00 0.00 0.00 0.00 0.00 0.00 0.00 0.00 0.00 0.00 0.00 0.00 0.00 0.00 0.00 0.00 0.00 0.00 0.00 0.00 0.00 0.00 0.00 0.00 0.00 0.00 0.00 0.00 0.00 0.00 0.00 0.00 0.00 0.00 0.00 0.00 0.00 0.00 0.01 0.01 0.01 0.00 0.00 0.02 0.03 0.02 0.02 0.01
0.40 0.13 0.03 0.00 0.00 0.00 0.00 0.00 0.00 0.00 0.00 0.00 0.00 0.00 0.00 0.00 0.00 0.00 0.00 0.00 0.00 0.00 0.00 0.00 0.00 0.00 0.00 0.00 0.00 0.00 0.00 0.00 0.00 0.00 0.00 0.00 0.00 0.00 0.00 0.00 0.00 0.00 0.00 0.00 0.02 0.01 0.00 0.00 0.01 0.02 0.01 0.04 0.03 0.01
0.41 0.22 0.10 0.01 0.00 0.00 0.00 0.00 0.00 0.00 0.00 0.00 0.00 0.00 0.00 0.00 0.00 0.00 0.00 0.00 0.00 0.00 0.00 0.00 0.00 0.00 0.00 0.00 0.00 0.00 0.00 0.00 0.00 0.00 0.00 0.00 0.01 0.00 0.00 0.00 0.00 0.00 0.00 0.00 0.01 0.00 0.00 0.01 0.00 0.01 0.01 0.00 0.00 0.01
0.27 0.23 0.15 0.04 0.00 0.00 0.00 0.00 0.00 0.00 0.00 0.00 0.00 0.00 0.00 0.00 0.00 0.00 0.00 0.00 0.00 0.00 0.03 0.00 0.00 0.00 0.00 0.00 0.00 0.00 0.00 0.00 0.00 0.00 0.00 0.01 0.01 0.00 0.00 0.00 0.00 0.00 0.00 0.00 0.01 0.00 0.01 0.02 0.04 0.03 0.01 0.01 0.00 0.00
0.10 0.14 0.13 0.07 0.03 0.01 0.00 0.00 0.00 0.00 0.00 0.00 0.00 0.00 0.00 0.00 0.00 0.00 0.00 0.00 0.00 0.01 0.02 0.00 0.00 0.00 0.00 0.00 0.00 0.00 0.00 0.00 0.00 0.00 0.01 0.01 0.00 0.00 0.01 0.04 0.04 0.00 0.00 0.02 0.02 0.02 0.04 0.08 0.04 0.03 0.02 0.01 0.00 0.00
0.00 0.05 0.10 0.09 0.06 0.06 0.02 0.00 0.00 0.00 0.00 0.00 0.00 0.00 0.00 0.00 0.00 0.00 0.00 0.00 0.00 0.00 0.00 0.01 0.00 0.00 0.00 0.00 0.00 0.00 0.00 0.00 0.00 0.00 0.01 0.01 0.00 0.01 0.07 0.05 0.00 0.00 0.00 0.01 0.02 0.02 0.05 0.06 0.02 0.00 0.01 0.00 0.00 0.00
0.00 0.00 0.02 0.06 0.08 0.08 0.12 0.05 0.02 0.01 0.00 0.00 0.00 0.00 0.00 0.00 0.00 0.02 0.02 0.00 0.00 0.01 0.03 0.02 0.00 0.00 0.00 0.00 0.00 0.00 0.00 0.00 0.00 0.02 0.01 0.00 0.00 0.06 0.11 0.03 0.00 0.00 0.00 0.00 0.00 0.02 0.03 0.01 0.01 0.00 0.00 0.00 0.00 0.00
0.00 0.00 0.00 0.02 0.06 0.12 0.16 0.19 0.10 0.04 0.02 0.01 0.00 0.01 0.02 0.04 0.02 0.03 0.01 0.00 0.00 0.02 0.02 0.01 0.00 0.00 0.00 0.00 0.00 0.00 0.00 0.00 0.01 0.02 0.01 0.00 0.01 0.03 0.04 0.00 0.00 0.00 0.00 0.00 0.00 0.01 0.04 0.03 0.01 0.00 0.00 0.00 0.00 0.00
0.00 0.00 0.00 0.01 0.05 0.07 0.15 0.24 0.26 0.19 0.11 0.10 0.09 0.10 0.11 0.08 0.05 0.03 0.03 0.03 0.01 0.04 0.04 0.01 0.00 0.00 0.00 0.00 0.00 0.00 0.00 0.00 0.00 0.00 0.00 0.01 0.02 0.03 0.01 0.00 0.00 0.00 0.00 0.00 0.01 0.00 0.00 0.00 0.00 0.00 0.00 0.00 0.00 0.00
0.00 0.00 0.00 0.00 0.00 0.02 0.04 0.15 0.27 0.39 0.55 0.75 0.65 0.50 0.29 0.16 0.17 0.10 0.15 0.25 0.32 0.25 0.12 0.05 0.02 0.01 0.00 0.00 0.00 0.02 0.05 0.02 0.01 0.00 0.00 0.00 0.00 0.00 0.00 0.00 0.00 0.00 0.00 0.00 0.00 0.00 0.00 0.00 0.00 0.00 0.00 0.00 0.00 0.00
0.00 0.00 0.00 0.00 0.00 0.00 0.01 0.10 0.29 0.55 1.26 1.46 1.30 0.86 0.45 0.38 0.19 0.28 0.33 0.33 0.27 0.15 0.09 0.09 0.07 0.05 0.02 0.04 0.11 0.21 0.20 0.07 0.04 0.01 0.01 0.02 0.00 0.00 0.00 0.00 0.00 0.00 0.00 0.00 0.00 0.00 0.00 0.00 0.00 0.00 0.00 0.00 0.00 0.00
0.00 0.00 0.00 0.00 0.00 0.01 0.01 0.09 0.31 0.61 1.03 1.32 1.01 0.66 0.58 0.73 0.61 0.71 0.75 0.38 0.12 0.05 0.03 0.01 0.02 0.04 0.10 0.10 0.14 0.28 0.23 0.17 0.10 0.01 0.04 0.02 0.00 0.00 0.00 0.00 0.00 0.00 0.00 0.00 0.00 0.00 0.00 0.00 0.00 0.00 0.00 0.00 0.00 0.00
0.02 0.00 0.00 0.00 0.00 0.02 0.03 0.09 0.14 0.26 0.48 0.80 0.91 1.00 0.94 1.06 0.88 0.62 0.36 0.16 0.05 0.01 0.00 0.01 0.04 0.08 0.09 0.08 0.19 0.20 0.19 0.16 0.05 0.03 0.01 0.00 0.00 0.00 0.00 0.00 0.00 0.00 0.00 0.00 0.00 0.00 0.00 0.00 0.00 0.00 0.00 0.00 0.00 0.00
0.02 0.00 0.00 0.00 0.00 0.03 0.08 0.07 0.15 0.29 0.36 0.66 0.79 0.93 0.72 0.75 0.54 0.31 0.13 0.03 0.01 0.01 0.01 0.01 0.05 0.05 0.06 0.10 0.19 0.18 0.15 0.07 0.06 0.03 0.00 0.00 0.00 0.00 0.00 0.00 0.00 0.00 0.00 0.00 0.00 0.00 0.00 0.00 0.00 0.00 0.00 0.00 0.00 0.00
0.07 0.01 0.00 0.01 0.01 0.02 0.10 0.14 0.11 0.08 0.10 0.15 0.25 0.40 0.40 0.35 0.24 0.16 0.14 0.12 0.09 0.07 0.09 0.09 0.11 0.09 0.11 0.14 0.14 0.09 0.08 0.07 0.03 0.02 0.01 0.00 0.00 0.00 0.00 0.00 0.00 0.00 0.00 0.00 0.00 0.00 0.00 0.00 0.00 0.00 0.00 0.00 0.00 0.00
0.21 0.05 0.01 0.00 0.01 0.03 0.04 0.16 0.09 0.09 0.05 0.01 0.08 0.16 0.21 0.16 0.17 0.17 0.16 0.15 0.12 0.15 0.14 0.14 0.13 0.10 0.10 0.08 0.09 0.08 0.07 0.05 0.02 0.00 0.00 0.00 0.00 0.00 0.00 0.00 0.00 0.00 0.00 0.00 0.00 0.00 0.00 0.00 0.00 0.00 0.00 0.00 0.00 0.00
0.37 0.08 0.01 0.00 0.00 0.04 0.07 0.09 0.15 0.11 0.09 0.00 0.01 0.02 0.04 0.06 0.07 0.11 0.11 0.10 0.09 0.13 0.15 0.10 0.08 0.08 0.07 0.07 0.05 0.03 0.03 0.02 0.00 0.00 0.00 0.00 0.00 0.00 0.00 0.00 0.00 0.00 0.00 0.00 0.00 0.00 0.00 0.00 0.00 0.00 0.00 0.00 0.00 0.00
0.43 0.08 0.01 0.00 0.00 0.02 0.08 0.02 0.07 0.03 0.00 0.00 0.00 0.00 0.00 0.00 0.00 0.00 0.00 0.00 0.00 0.01 0.01 0.01 0.01 0.00 0.01 0.02 0.01 0.00 0.00 0.00 0.00 0.00 0.00 0.00 0.00 0.00 0.00 0.00 0.00 0.00 0.00 0.00 0.00 0.00 0.00 0.00 0.00 0.00 0.00 0.00 0.00 0.00
0.26 0.17 0.04 0.03 0.00 0.01 0.07 0.05 0.01 0.00 0.00 0.00 0.00 0.00 0.00 0.00 0.00 0.00 0.00 0.00 0.00 0.00 0.00 0.00 0.00 0.00 0.00 0.00 0.00 0.00 0.00 0.00 0.00 0.00 0.00 0.00 0.00 0.00 0.00 0.00 0.00 0.00 0.00 0.00 0.00 0.00 0.00 0.00 0.00 0.00 0.00 0.00 0.00 0.01
0.50 0.46 0.24 0.09 0.01 0.00 0.00 0.01 0.00 0.00 0.00 0.00 0.00 0.00 0.00 0.00 0.00 0.00 0.00 0.00 0.00 0.00 0.01 0.01 0.00 0.00 0.00 0.00 0.00 0.00 0.00 0.00 0.00 0.00 0.00 0.00 0.00 0.00 0.00 0.00 0.00 0.00 0.00 0.00 0.00 0.00 0.00 0.00 0.01 0.01 0.02 0.03 0.03 0.01
0.62 0.65 0.45 0.20 0.03 0.00 0.00 0.00 0.00 0.00 0.00 0.00 0.00 0.00 0.00 0.00 0.00 0.00 0.00 0.00 0.01 0.02 0.00 0.00 0.00 0.00 0.00 0.00 0.00 0.00 0.00 0.00 0.00 0.00 0.00 0.00 0.00 0.00 0.00 0.00 0.00 0.00 0.00 0.00 0.00 0.00 0.00 0.01 0.01 0.03 0.04 0.02 0.01 0.01
0.37 0.44 0.40 0.29 0.10 0.01 0.00 0.00 0.00 0.00 0.00 0.00 0.00 0.00 0.00 0.00 0.00 0.00 0.00 0.00 0.00 0.00 0.00 0.00 0.00 0.00 0.00 0.00 0.00 0.00 0.00 0.00 0.00 0.00 0.00 0.00 0.00 0.00 0.00 0.00 0.00 0.00 0.00 0.01 0.01 0.00 0.00 0.01 0.01 0.02 0.01 0.01 0.01 0.02
0.28 0.36 0.32 0.32 0.17 0.04 0.01 0.00 0.00 0.00 0.00 0.00 0.00 0.00 0.00 0.00 0.00 0.00 0.00 0.00 0.00 0.00 0.00 0.00 0.00 0.00 0.00 0.00 0.00 0.00 0.00 0.00 0.00 0.00 0.00 0.00 0.00 0.00 0.00 0.00 0.01 0.01 0.01 0.00 0.01 0.01 0.02 0.01 0.01 0.01 0.01 0.02 0.02 0.02
0.27 0.28 0.26 0.21 0.10 0.03 0.00 0.00 0.00 0.00 0.00 0.00 0.00 0.00 0.00 0.00 0.00 0.00 0.00 0.00 0.00 0.00 0.00 0.00 0.00 0.00 0.00 0.00 0.00 0.00 0.00 0.00 0.00 0.00 0.00 0.00 0.00 0.01 0.01 0.01 0.01 0.02 0.02 0.02 0.01 0.01 0.01 0.01 0.01 0.02 0.02 0.03 0.02 0.02
0.34 0.22 0.14 0.09 0.03 0.01 0.00 0.01 0.01 0.00 0.00 0.00 0.00 0.00 0.00 0.00 0.00 0.00 0.00 0.00 0.00 0.00 0.00 0.00 0.00 0.00 0.00 0.00 0.00 0.00 0.00 0.00 0.00 0.00 0.00 0.01 0.02 0.01 0.01 0.01 0.01 0.02 0.02 0.02 0.01 0.02 0.02 0.02 0.03 0.04 0.03 0.03 0.03 0.03
0.15 0.07 0.03 0.01 0.01 0.00 0.00 0.00 0.01 0.00 0.00 0.00 0.00 0.00 0.00 0.00 0.00 0.00 0.00 0.00 0.00 0.00 0.00 0.00 0.00 0.00 0.00 0.00 0.00 0.00 0.00 0.00 0.00 0.00 0.00 0.01 0.01 0.02 0.02 0.02 0.02 0.03 0.04 0.04 0.05 0.05 0.03 0.03 0.03 0.03 0.03 0.03 0.04 0.05
0.01 0.00 0.00 0.00 0.00 0.00 0.00 0.00 0.00 0.00 0.00 0.00 0.00 0.00 0.00 0.00 0.00 0.00 0.00 0.00 0.00 0.00 0.00 0.00 0.00 0.00 0.00 0.00 0.00 0.00 0.00 0.00 0.00 0.00 0.00 0.00 0.01 0.03 0.08 0.12 0.11 0.09 0.04 0.06 0.08 0.09 0.09 0.07 0.05 0.05 0.05 0.04 0.03 0.05
0.00 0.00 0.00 0.00 0.00 0.00 0.00 0.00 0.00 0.00 0.00 0.00 0.00 0.00 0.00 0.00 0.00 0.00 0.00 0.00 0.00 0.00 0.00 0.00 0.00 0.00 0.00 0.00 0.00 0.00 0.00 0.00 0.00 0.00 0.00 0.02 0.07 0.08 0.08 0.09 0.09 0.07 0.07 0.08 0.08 0.08 0.09 0.10 0.08 0.07 0.06 0.06 0.06 0.06
0.00 0.00 0.00 0.00 0.00 0.00 0.00 0.00 0.00 0.00 0.00 0.00 0.00 0.00 0.00 0.00 0.01 0.01 0.00 0.00 0.00 0.00 0.00 0.00 0.00 0.00 0.00 0.00 0.00 0.01 0.01 0.01 0.02 0.02 0.01 0.03 0.08 0.07 0.05 0.06 0.06 0.06 0.06 0.05 0.04 0.08 0.11 0.10 0.07 0.06 0.07 0.08 0.06 0.05
0.00 0.00 0.00 0.00 0.00 0.00 0.00 0.00 0.00 0.00 0.00 0.00 0.00 0.00 0.01 0.01 0.02 0.01 0.01 0.00 0.01 0.01 0.01 0.01 0.01 0.01 0.01 0.01 0.01 0.03 0.05 0.04 0.06 0.08 0.08 0.07 0.07 0.06 0.05 0.05 0.05 0.05 0.05 0.05 0.04 0.03 0.05 0.05 0.05 0.06 0.04 0.03 0.01 0.02
0.01 0.01 0.01 0.01 0.00 0.00 0.00 0.00 0.00 0.00 0.00 0.00 0.00 0.01 0.05 0.03 0.03 0.01 0.01 0.01 0.01 0.00 0.00 0.01 0.01 0.02 0.03 0.03 0.04 0.05 0.06 0.06 0.07 0.07 0.07 0.07 0.06 0.05 0.05 0.04 0.03 0.03 0.03 0.04 0.04 0.04 0.04 0.04 0.05 0.04 0.02 0.02 0.01 0.01
0.01 0.01 0.01 0.01 0.00 0.00 0.00 0.00 0.00 0.00 0.00 0.00 0.01 0.01 0.02 0.02 0.02 0.02 0.02 0.01 0.01 0.01 0.03 0.04 0.04 0.04 0.06 0.08 0.08 0.08 0.07 0.06 0.05 0.05 0.05 0.05 0.05 0.06 0.04 0.03 0.03 0.03 0.03 0.04 0.04 0.04 0.04 0.04 0.04 0.03 0.03 0.01 0.01 0.01
0.01 0.01 0.01 0.01 0.00 0.00 0.00 0.00 0.00 0.00 0.00 0.00 0.01 0.01 0.02 0.02 0.02 0.03 0.02 0.03 0.05 0.05 0.05 0.05 0.06 0.07 0.08 0.07 0.06 0.06 0.05 0.05 0.05 0.05 0.05 0.05 0.05 0.04 0.03 0.03 0.03 0.03 0.04 0.04 0.05 0.04 0.03 0.03 0.02 0.02 0.01 0.01 0.00 0.01

GFSWCAN_prec_precacc24_018.txt.gz
Total_Precipitation_Accumulation
0.32 0.06 0.01 0.00 0.00 0.00 0.00 0.00 0.00 0.00 0.00 0.00 0.00 0.00 0.00 0.00 0.00 0.00 0.00 0.00 0.00 0.00 0.00 0.00 0.00 0.00 0.00 0.00 0.00 0.00 0.00 0.00 0.00 0.00 0.00 0.00 0.00 0.00 0.00 0.00 0.00 0.00 0.00 0.00 0.01 0.01 0.01 0.00 0.00 0.02 0.03 0.02 0.02 0.01
0.48 0.14 0.03 0.00 0.00 0.00 0.00 0.00 0.00 0.00 0.00 0.00 0.00 0.00 0.00 0.00 0.00 0.00 0.00 0.00 0.00 0.00 0.00 0.00 0.00 0.00 0.00 0.00 0.00 0.00 0.00 0.00 0.00 0.00 0.00 0.00 0.00 0.00 0.00 0.00 0.00 0.00 0.00 0.00 0.02 0.01 0.00 0.00 0.01 0.02 0.01 0.04 0.03 0.01
0.66 0.28 0.10 0.01 0.00 0.00 0.00 0.00 0.00 0.00 0.00 0.00 0.00 0.00 0.00 0.00 0.00 0.00 0.00 0.00 0.00 0.00 0.00 0.00 0.00 0.00 0.00 0.00 0.00 0.00 0.00 0.00 0.00 0.00 0.00 0.00 0.01 0.00 0.00 0.00 0.00 0.00 0.00 0.00 0.01 0.00 0.00 0.01 0.00 0.01 0.01 0.00 0.00 0.01
0.72 0.43 0.20 0.05 0.00 0.00 0.00 0.00 0.00 0.00 0.00 0.00 0.00 0.00 0.00 0.00 0.00 0.00 0.00 0.00 0.00 0.00 0.04 0.00 0.00 0.00 0.00 0.00 0.00 0.00 0.00 0.00 0.00 0.00 0.00 0.01 0.01 0.00 0.00 0.00 0.00 0.00 0.00 0.00 0.01 0.00 0.01 0.02 0.04 0.03 0.01 0.01 0.00 0.00
0.62 0.46 0.27 0.09 0.04 0.01 0.00 0.00 0.00 0.00 0.00 0.01 0.01 0.01 0.00 0.00 0.00 0.00 0.00 0.00 0.00 0.02 0.02 0.00 0.00 0.00 0.00 0.00 0.00 0.00 0.00 0.00 0.00 0.00 0.01 0.01 0.00 0.00 0.01 0.04 0.04 0.00 0.00 0.02 0.02 0.02 0.04 0.08 0.04 0.03 0.02 0.01 0.00 0.00
0.48 0.37 0.32 0.15 0.07 0.06 0.02 0.00 0.00 0.00 0.01 0.01 0.01 0.01 0.00 0.00 0.00 0.00 0.00 0.00 0.00 0.00 0.00 0.01 0.00 0.00 0.00 0.00 0.00 0.00 0.00 0.00 0.00 0.00 0.01 0.01 0.00 0.01 0.07 0.05 0.00 0.00 0.00 0.01 0.02 0.02 0.05 0.06 0.02 0.00 0.01 0.00 0.00 0.00
0.28 0.27 0.26 0.18 0.11 0.09 0.12 0.05 0.02 0.01 0.01 0.00 0.01 0.00 0.00 0.00 0.00 0.02 0.02 0.00 0.00 0.01 0.03 0.02 0.00 0.00 0.00 0.00 0.00 0.00 0.00 0.00 0.00 0.02 0.01 0.00 0.00 0.07 0.11 0.03 0.00 0.00 0.00 0.00 0.00 0.02 0.03 0.01 0.01 0.00 0.00 0.00 0.00 0.00
0.09 0.10 0.12 0.14 0.12 0.14 0.16 0.20 0.10 0.05 0.02 0.01 0.01 0.01 0.02 0.04 0.02 0.03 0.01 0.00 0.00 0.02 0.02 0.01 0.00 0.00 0.00 0.00 0.00 0.00 0.01 0.03 0.02 0.02 0.01 0.00 0.01 0.04 0.05 0.00 0.00 0.00 0.00 0.00 0.00 0.01 0.04 0.03 0.01 0.00 0.00 0.00 0.00 0.00
0.00 0.01 0.03 0.05 0.08 0.08 0.15 0.24 0.27 0.20 0.11 0.10 0.09 0.10 0.11 0.08 0.06 0.03 0.03 0.03 0.01 0.06 0.05 0.01 0.00 0.00 0.00 0.00 0.00 0.00 0.00 0.00 0.00 0.00 0.00 0.01 0.02 0.04 0.01 0.00 0.00 0.00 0.00 0.00 0.01 0.00 0.00 0.01 0.01 0.00 0.00 0.00 0.00 0.00
0.00 0.00 0.00 0.00 0.01 0.02 0.04 0.15 0.27 0.40 0.56 0.76 0.65 0.50 0.29 0.16 0.17 0.11 0.15 0.25 0.32 0.25 0.12 0.05 0.02 0.01 0.00 0.00 0.00 0.02 0.05 0.02 0.01 0.00 0.00 0.00 0.00 0.00 0.00 0.00 0.00 0.00 0.00 0.00 0.00 0.00 0.02 0.02 0.01 0.00 0.00 0.00 0.00 0.00
0.00 0.00 0.00 0.00 0.00 0.00 0.01 0.10 0.29 0.57 1.33 1.55 1.36 0.88 0.45 0.39 0.19 0.29 0.34 0.33 0.27 0.15 0.09 0.09 0.07 0.05 0.02 0.04 0.11 0.21 0.20 0.07 0.04 0.01 0.01 0.02 0.00 0.00 0.00 0.00 0.00 0.00 0.00 0.00 0.00 0.01 0.02 0.02 0.00 0.00 0.00 0.00 0.00 0.00
0.00 0.00 0.00 0.00 0.00 0.01 0.01 0.09 0.31 0.61 1.05 1.47 1.13 0.74 0.66 0.85 0.70 0.80 0.80 0.39 0.12 0.05 0.03 0.01 0.02 0.04 0.10 0.10 0.14 0.28 0.23 0.17 0.10 0.01 0.04 0.02 0.00 0.00 0.00 0.00 0.00 0.00 0.00 0.01 0.02 0.01 0.01 0.00 0.00 0.00 0.00 0.00 0.00 0.00
0.02 0.00 0.00 0.00 0.00 0.02 0.03 0.09 0.14 0.27 0.50 0.89 1.11 1.25 1.20 1.42 1.24 0.90 0.47 0.19 0.07 0.02 0.01 0.01 0.04 0.08 0.09 0.08 0.21 0.24 0.26 0.20 0.06 0.04 0.02 0.00 0.00 0.00 0.00 0.00 0.00 0.01 0.01 0.01 0.00 0.00 0.00 0.00 0.00 0.00 0.00 0.00 0.00 0.00
0.02 0.00 0.00 0.00 0.00 0.03 0.08 0.07 0.15 0.29 0.36 0.68 0.90 1.17 1.00 1.03 0.71 0.43 0.18 0.07 0.05 0.04 0.02 0.02 0.05 0.06 0.07 0.13 0.34 0.40 0.38 0.19 0.17 0.10 0.04 0.07 0.07 0.08 0.01 0.00 0.00 0.00 0.00 0.00 0.00 0.00 0.00 0.00 0.00 0.00 0.00 0.00 0.00 0.00
0.07 0.01 0.00 0.01 0.01 0.02 0.10 0.14 0.11 0.08 0.10 0.15 0.26 0.45 0.48 0.41 0.29 0.19 0.17 0.15 0.14 0.15 0.20 0.22 0.24 0.22 0.21 0.32 0.36 0.28 0.25 0.22 0.19 0.23 0.21 0.11 0.06 0.03 0.00 0.00 0.00 0.00 0.00 0.00 0.00 0.00 0.00 0.00 0.00 0.00 0.00 0.00 0.00 0.00
0.21 0.05 0.01 0.00 0.01 0.03 0.04 0.16 0.09 0.09 0.05 0.01 0.08 0.17 0.22 0.18 0.20 0.22 0.24 0.25 0.25 0.32 0.31 0.30 0.31 0.28 0.27 0.22 0.21 0.22 0.22 0.26 0.29 0.11 0.02 0.00 0.00 0.00 0.00 0.01 0.03 0.01 0.00 0.00 0.00 0.00 0.00 0.00 0.00 0.00 0.00 0.00 0.00 0.00
0.37 0.09 0.01 0.00 0.00 0.04 0.07 0.09 0.15 0.11 0.09 0.00 0.01 0.02 0.04 0.06 0.08 0.12 0.13 0.12 0.12 0.17 0.19 0.15 0.16 0.16 0.15 0.16 0.18 0.14 0.17 0.12 0.03 0.00 0.00 0.00 0.00 0.00 0.00 0.00 0.00 0.00 0.00 0.00 0.00 0.00 0.00 0.00 0.00 0.00 0.00 0.00 0.00 0.00
0.44 0.09 0.01 0.00 0.01 0.02 0.08 0.02 0.07 0.03 0.00 0.00 0.00 0.00 0.00 0.00 0.00 0.00 0.00 0.00 0.00 0.01 0.02 0.02 0.02 0.02 0.06 0.07 0.06 0.03 0.01 0.00 0.00 0.00 0.00 0.00 0.00 0.00 0.00 0.00 0.00 0.00 0.00 0.00 0.00 0.00 0.00 0.00 0.00 0.00 0.00 0.00 0.00 0.00
0.26 0.18 0.04 0.05 0.01 0.01 0.07 0.05 0.01 0.00 0.00 0.00 0.00 0.00 0.00 0.00 0.00 0.00 0.00 0.00 0.00 0.00 0.00 0.00 0.00 0.00 0.00 0.00 0.00 0.00 0.00 0.00 0.00 0.00 0.00 0.00 0.00 0.00 0.00 0.00 0.00 0.00 0.00 0.00 0.00 0.00 0.00 0.00 0.00 0.00 0.00 0.00 0.01 0.02
0.50 0.46 0.25 0.13 0.01 0.00 0.00 0.01 0.00 0.00 0.00 0.00 0.00 0.00 0.00 0.00 0.00 0.01 0.01 0.00 0.00 0.00 0.01 0.01 0.00 0.00 0.00 0.00 0.00 0.00 0.00 0.00 0.00 0.00 0.00 0.00 0.00 0.00 0.00 0.00 0.00 0.00 0.00 0.00 0.00 0.00 0.00 0.00 0.01 0.01 0.02 0.04 0.04 0.02
0.62 0.65 0.46 0.25 0.09 0.00 0.00 0.00 0.00 0.00 0.00 0.00 0.00 0.00 0.00 0.00 0.00 0.00 0.00 0.00 0.01 0.02 0.00 0.00 0.00 0.00 0.00 0.00 0.00 0.00 0.00 0.00 0.00 0.00 0.00 0.00 0.00 0.00 0.00 0.00 0.00 0.00 0.00 0.00 0.00 0.00 0.00 0.01 0.01 0.03 0.06 0.03 0.02 0.01
0.37 0.45 0.41 0.35 0.21 0.03 0.00 0.00 0.00 0.00 0.00 0.00 0.00 0.00 0.00 0.00 0.00 0.00 0.00 0.00 0.00 0.00 0.00 0.00 0.00 0.00 0.00 0.00 0.00 0.00 0.00 0.00 0.00 0.00 0.00 0.00 0.00 0.00 0.00 0.00 0.00 0.00 0.00 0.01 0.02 0.01 0.00 0.02 0.03 0.03 0.02 0.01 0.02 0.02
0.29 0.38 0.37 0.37 0.27 0.09 0.04 0.00 0.00 0.00 0.00 0.00 0.00 0.00 0.00 0.00 0.00 0.00 0.00 0.00 0.00 0.00 0.00 0.00 0.00 0.00 0.00 0.00 0.00 0.00 0.00 0.00 0.00 0.00 0.00 0.00 0.00 0.00 0.00 0.01 0.01 0.02 0.01 0.01 0.03 0.03 0.03 0.02 0.01 0.02 0.03 0.03 0.03 0.03
0.31 0.37 0.38 0.31 0.20 0.13 0.04 0.02 0.01 0.00 0.00 0.00 0.00 0.00 0.00 0.00 0.00 0.00 0.00 0.00 0.00 0.00 0.00 0.00 0.00 0.00 0.00 0.00 0.00 0.00 0.00 0.00 0.00 0.00 0.00 0.00 0.00 0.01 0.01 0.01 0.01 0.03 0.03 0.03 0.02 0.01 0.01 0.02 0.04 0.04 0.03 0.04 0.04 0.05
0.41 0.30 0.25 0.20 0.10 0.05 0.02 0.02 0.02 0.01 0.00 0.00 0.00 0.00 0.00 0.00 0.00 0.00 0.00 0.01 0.01 0.01 0.00 0.00 0.00 0.00 0.00 0.00 0.00 0.00 0.00 0.00 0.00 0.00 0.00 0.01 0.02 0.01 0.01 0.01 0.02 0.03 0.02 0.03 0.03 0.04 0.04 0.04 0.04 0.04 0.04 0.05 0.07 0.07
0.27 0.16 0.11 0.06 0.03 0.05 0.02 0.01 0.01 0.01 0.00 0.01 0.01 0.01 0.00 0.00 0.00 0.00 0.02 0.04 0.02 0.01 0.00 0.01 0.00 0.00 0.00 0.00 0.00 0.00 0.00 0.00 0.00 0.00 0.00 0.01 0.02 0.03 0.03 0.03 0.03 0.03 0.04 0.05 0.08 0.07 0.04 0.03 0.04 0.05 0.05 0.05 0.06 0.09
0.10 0.07 0.03 0.03 0.05 0.08 0.07 0.04 0.04 0.02 0.02 0.01 0.00 0.00 0.00 0.00 0.00 0.02 0.02 0.03 0.02 0.02 0.00 0.00 0.00 0.00 0.00 0.00 0.00 0.00 0.00 0.00 0.00 0.01 0.01 0.02 0.03 0.04 0.09 0.14 0.15 0.11 0.05 0.06 0.09 0.10 0.11 0.09 0.07 0.06 0.07 0.06 0.06 0.11
0.03 0.03 0.04 0.08 0.10 0.07 0.07 0.06 0.05 0.03 0.02 0.01 0.00 0.00 0.00 0.00 0.01 0.03 0.02 0.02 0.02 0.02 0.01 0.00 0.00 0.00 0.00 0.01 0.01 0.01 0.00 0.00 0.00 0.00 0.02 0.05 0.08 0.08 0.08 0.09 0.10 0.08 0.07 0.08 0.09 0.09 0.11 0.13 0.11 0.09 0.09 0.11 0.14 0.15
0.07 0.11 0.07 0.05 0.02 0.01 0.01 0.01 0.00 0.00 0.00 0.00 0.00 0.00 0.01 0.01 0.04 0.03 0.02 0.01 0.01 0.00 0.00 0.00 0.00 0.00 0.00 0.01 0.01 0.02 0.01 0.01 0.02 0.02 0.01 0.03 0.08 0.07 0.05 0.06 0.06 0.06 0.06 0.05 0.04 0.08 0.12 0.14 0.11 0.14 0.19 0.18 0.15 0.13
0.03 0.02 0.01 0.00 0.00 0.01 0.01 0.01 0.01 0.00 0.00 0.00 0.00 0.00 0.01 0.03 0.04 0.03 0.01 0.01 0.01 0.02 0.03 0.02 0.02 0.01 0.02 0.02 0.01 0.04 0.07 0.05 0.06 0.08 0.08 0.08 0.08 0.07 0.05 0.05 0.05 0.06 0.06 0.06 0.04 0.03 0.05 0.05 0.06 0.14 0.09 0.06 0.08 0.10
0.01 0.01 0.01 0.01 0.01 0.01 0.01 0.00 0.00 0.00 0.00 0.00 0.00 0.01 0.07 0.05 0.05 0.02 0.02 0.04 0.02 0.01 0.01 0.01 0.01 0.02 0.03 0.03 0.05 0.05 0.07 0.07 0.07 0.07 0.08 0.08 0.07 0.05 0.05 0.04 0.03 0.04 0.04 0.04 0.04 0.05 0.06 0.06 0.08 0.10 0.06 0.05 0.06 0.06
0.01 0.02 0.01 0.01 0.01 0.01 0.00 0.00 0.00 0.00 0.00 0.00 0.02 0.02 0.04 0.03 0.03 0.03 0.02 0.02 0.01 0.02 0.03 0.04 0.04 0.05 0.07 0.08 0.09 0.09 0.08 0.07 0.05 0.05 0.06 0.06 0.06 0.06 0.04 0.03 0.03 0.04 0.04 0.04 0.05 0.07 0.07 0.07 0.07 0.07 0.07 0.06 0.06 0.05
0.01 0.01 0.01 0.01 0.00 0.00 0.00 0.00 0.00 0.00 0.00 0.01 0.03 0.03 0.03 0.03 0.03 0.04 0.02 0.03 0.05 0.05 0.05 0.05 0.06 0.07 0.09 0.07 0.06 0.07 0.05 0.05 0.05 0.05 0.06 0.06 0.05 0.04 0.03 0.03 0.03 0.04 0.04 0.05 0.06 0.07 0.06 0.05 0.05 0.06 0.05 0.05 0.04 0.04

GFSWCAN_prec_precacc24_021.txt.gz
Total_Precipitation_Accumulation
0.32 0.06 0.01 0.00 0.00 0.00 0.00 0.00 0.00 0.00 0.00 0.00 0.00 0.00 0.00 0.00 0.00 0.00 0.00 0.00 0.00 0.00 0.00 0.00 0.00 0.00 0.00 0.00 0.00 0.00 0.00 0.00 0.00 0.00 0.00 0.00 0.00 0.00 0.00 0.00 0.00 0.00 0.00 0.00 0.01 0.01 0.01 0.00 0.00 0.02 0.03 0.02 0.02 0.01
0.49 0.14 0.03 0.00 0.00 0.00 0.00 0.00 0.00 0.00 0.00 0.00 0.00 0.00 0.00 0.00 0.00 0.00 0.00 0.00 0.00 0.00 0.00 0.00 0.00 0.00 0.00 0.00 0.00 0.00 0.00 0.00 0.00 0.00 0.00 0.00 0.00 0.00 0.00 0.00 0.00 0.00 0.00 0.00 0.02 0.01 0.00 0.00 0.01 0.02 0.01 0.04 0.03 0.01
0.67 0.28 0.10 0.01 0.00 0.00 0.00 0.00 0.00 0.00 0.00 0.00 0.00 0.00 0.00 0.00 0.00 0.00 0.00 0.00 0.00 0.00 0.00 0.00 0.00 0.00 0.00 0.00 0.00 0.00 0.00 0.00 0.00 0.00 0.00 0.00 0.01 0.00 0.00 0.00 0.00 0.00 0.00 0.00 0.01 0.00 0.00 0.01 0.00 0.01 0.01 0.00 0.00 0.01
0.73 0.43 0.20 0.05 0.00 0.00 0.00 0.00 0.00 0.00 0.00 0.00 0.00 0.00 0.00 0.00 0.00 0.00 0.00 0.00 0.00 0.00 0.04 0.00 0.00 0.00 0.00 0.00 0.00 0.00 0.00 0.00 0.00 0.00 0.00 0.01 0.01 0.00 0.00 0.00 0.00 0.00 0.00 0.00 0.01 0.00 0.01 0.02 0.04 0.03 0.01 0.01 0.00 0.00
0.62 0.46 0.27 0.09 0.04 0.01 0.00 0.00 0.00 0.00 0.00 0.01 0.01 0.01 0.00 0.00 0.00 0.00 0.00 0.00 0.00 0.02 0.02 0.00 0.00 0.00 0.00 0.00 0.00 0.00 0.00 0.00 0.00 0.00 0.01 0.01 0.00 0.00 0.01 0.04 0.04 0.00 0.00 0.02 0.02 0.02 0.04 0.08 0.04 0.03 0.02 0.01 0.00 0.00
0.50 0.37 0.32 0.15 0.07 0.06 0.02 0.01 0.00 0.01 0.01 0.01 0.01 0.01 0.00 0.00 0.00 0.00 0.00 0.00 0.00 0.00 0.00 0.01 0.00 0.00 0.00 0.00 0.00 0.00 0.00 0.00 0.00 0.00 0.01 0.01 0.00 0.01 0.07 0.05 0.00 0.00 0.00 0.01 0.02 0.02 0.05 0.06 0.02 0.00 0.01 0.00 0.00 0.00
0.38 0.29 0.26 0.18 0.11 0.09 0.12 0.06 0.02 0.01 0.01 0.01 0.01 0.00 0.00 0.00 0.00 0.02 0.02 0.00 0.00 0.01 0.03 0.02 0.00 0.00 0.00 0.00 0.00 0.00 0.00 0.00 0.00 0.02 0.01 0.00 0.00 0.07 0.11 0.03 0.00 0.00 0.00 0.00 0.00 0.02 0.03 0.01 0.01 0.00 0.00 0.00 0.00 0.00
0.27 0.19 0.14 0.14 0.12 0.14 0.16 0.20 0.10 0.05 0.02 0.01 0.01 0.01 0.02 0.04 0.02 0.03 0.01 0.00 0.00 0.02 0.02 0.01 0.00 0.00 0.00 0.00 0.00 0.00 0.02 0.03 0.02 0.03 0.01 0.00 0.01 0.04 0.05 0.00 0.00 0.00 0.00 0.00 0.00 0.01 0.04 0.03 0.01 0.00 0.00 0.00 0.00 0.01
0.14 0.10 0.06 0.06 0.08 0.08 0.15 0.24 0.27 0.20 0.11 0.10 0.09 0.10 0.11 0.08 0.06 0.03 0.03 0.03 0.01 0.06 0.05 0.01 0.00 0.00 0.00 0.00 0.00 0.00 0.01 0.01 0.01 0.00 0.00 0.01 0.02 0.04 0.01 0.00 0.00 0.00 0.00 0.00 0.01 0.00 0.00 0.01 0.01 0.00 0.01 0.02 0.02 0.00
0.04 0.03 0.01 0.01 0.01 0.02 0.04 0.16 0.27 0.40 0.57 0.76 0.65 0.50 0.29 0.16 0.17 0.11 0.15 0.25 0.32 0.25 0.12 0.05 0.02 0.01 0.00 0.00 0.00 0.02 0.05 0.02 0.01 0.00 0.00 0.00 0.00 0.00 0.00 0.00 0.00 0.00 0.00 0.00 0.00 0.00 0.02 0.03 0.04 0.07 0.08 0.04 0.01 0.00
0.01 0.01 0.00 0.00 0.00 0.00 0.01 0.10 0.30 0.57 1.33 1.55 1.36 0.88 0.45 0.39 0.19 0.29 0.34 0.33 0.27 0.15 0.09 0.09 0.07 0.05 0.02 0.04 0.11 0.21 0.20 0.07 0.04 0.01 0.01 0.02 0.00 0.00 0.00 0.00 0.00 0.00 0.00 0.00 0.00 0.01 0.03 0.08 0.15 0.08 0.01 0.00 0.00 0.00
0.00 0.00 0.00 0.00 0.00 0.01 0.02 0.10 0.31 0.61 1.05 1.47 1.13 0.74 0.66 0.85 0.70 0.80 0.80 0.39 0.12 0.05 0.03 0.01 0.02 0.04 0.10 0.10 0.14 0.28 0.23 0.17 0.10 0.01 0.04 0.02 0.00 0.00 0.00 0.00 0.00 0.00 0.00 0.02 0.06 0.12 0.12 0.08 0.02 0.01 0.01 0.00 0.00 0.00
0.02 0.00 0.00 0.00 0.00 0.02 0.03 0.09 0.15 0.29 0.53 0.91 1.13 1.28 1.22 1.45 1.25 0.91 0.47 0.20 0.07 0.02 0.01 0.01 0.04 0.08 0.09 0.08 0.23 0.29 0.31 0.23 0.07 0.05 0.03 0.02 0.02 0.01 0.01 0.03 0.06 0.08 0.09 0.11 0.08 0.06 0.03 0.02 0.01 0.00 0.00 0.00 0.00 0.00
0.02 0.00 0.00 0.00 0.00 0.03 0.08 0.07 0.15 0.30 0.38 0.73 0.97 1.25 1.05 1.09 0.73 0.45 0.19 0.07 0.06 0.05 0.02 0.02 0.05 0.06 0.08 0.14 0.39 0.48 0.46 0.25 0.23 0.13 0.06 0.12 0.18 0.14 0.01 0.00 0.00 0.00 0.00 0.00 0.00 0.00 0.00 0.00 0.00 0.00 0.00 0.00 0.00 0.00
0.07 0.01 0.00 0.01 0.01 0.02 0.10 0.14 0.11 0.08 0.10 0.15 0.27 0.47 0.50 0.42 0.30 0.20 0.17 0.16 0.15 0.17 0.22 0.26 0.29 0.27 0.26 0.39 0.42 0.34 0.31 0.28 0.24 0.27 0.25 0.19 0.18 0.09 0.00 0.00 0.01 0.02 0.02 0.01 0.00 0.00 0.00 0.00 0.00 0.00 0.00 0.00 0.00 0.00
0.21 0.05 0.01 0.00 0.01 0.03 0.04 0.16 0.09 0.09 0.05 0.01 0.08 0.17 0.22 0.18 0.20 0.22 0.24 0.25 0.25 0.33 0.32 0.32 0.33 0.32 0.34 0.28 0.24 0.25 0.26 0.31 0.32 0.11 0.02 0.01 0.01 0.03 0.05 0.05 0.08 0.07 0.02 0.00 0.00 0.00 0.00 0.00 0.00 0.00 0.00 0.00 0.00 0.00
0.37 0.09 0.01 0.00 0.00 0.04 0.07 0.09 0.15 0.11 0.09 0.00 0.01 0.02 0.04 0.06 0.08 0.12 0.13 0.12 0.13 0.17 0.19 0.15 0.16 0.17 0.16 0.18 0.21 0.19 0.22 0.15 0.05 0.02 0.01 0.01 0.00 0.00 0.00 0.00 0.00 0.00 0.00 0.00 0.00 0.00 0.00 0.00 0.00 0.00 0.00 0.00 0.00 0.00
0.44 0.09 0.01 0.00 0.01 0.02 0.08 0.02 0.07 0.03 0.00 0.00 0.00 0.00 0.00 0.00 0.00 0.00 0.00 0.00 0.00 0.01 0.02 0.02 0.02 0.03 0.08 0.10 0.10 0.05 0.04 0.02 0.02 0.00 0.00 0.00 0.00 0.00 0.00 0.00 0.00 0.00 0.00 0.00 0.00 0.00 0.00 0.00 0.00 0.00 0.00 0.00 0.00 0.00
0.26 0.18 0.04 0.05 0.01 0.01 0.07 0.05 0.01 0.00 0.00 0.00 0.00 0.01 0.01 0.00 0.00 0.00 0.00 0.00 0.00 0.00 0.00 0.00 0.00 0.00 0.00 0.00 0.00 0.00 0.00 0.00 0.00 0.00 0.00 0.00 0.00 0.00 0.00 0.00 0.00 0.00 0.00 0.00 0.00 0.00 0.00 0.00 0.00 0.00 0.00 0.00 0.01 0.02
0.50 0.46 0.25 0.13 0.01 0.00 0.00 0.01 0.00 0.00 0.00 0.00 0.00 0.00 0.00 0.00 0.00 0.01 0.01 0.00 0.00 0.00 0.01 0.01 0.00 0.00 0.00 0.00 0.00 0.00 0.00 0.00 0.00 0.00 0.00 0.00 0.00 0.00 0.00 0.00 0.00 0.00 0.00 0.00 0.00 0.00 0.00 0.00 0.01 0.01 0.02 0.04 0.04 0.02
0.62 0.65 0.46 0.25 0.09 0.00 0.00 0.00 0.00 0.00 0.00 0.00 0.00 0.00 0.00 0.01 0.00 0.00 0.00 0.00 0.01 0.02 0.00 0.00 0.00 0.00 0.00 0.00 0.00 0.00 0.00 0.00 0.00 0.00 0.00 0.00 0.00 0.00 0.00 0.00 0.00 0.00 0.00 0.00 0.00 0.00 0.00 0.01 0.01 0.03 0.06 0.03 0.02 0.02
0.37 0.45 0.41 0.35 0.21 0.03 0.00 0.00 0.00 0.00 0.00 0.00 0.00 0.00 0.00 0.00 0.00 0.01 0.00 0.00 0.00 0.00 0.00 0.00 0.00 0.00 0.00 0.00 0.00 0.00 0.00 0.00 0.00 0.00 0.00 0.00 0.00 0.00 0.00 0.00 0.00 0.00 0.00 0.01 0.02 0.01 0.01 0.02 0.03 0.03 0.02 0.02 0.03 0.03
0.29 0.38 0.37 0.37 0.27 0.09 0.04 0.00 0.00 0.00 0.00 0.00 0.01 0.00 0.00 0.00 0.00 0.00 0.00 0.00 0.00 0.00 0.00 0.00 0.00 0.00 0.00 0.00 0.00 0.00 0.00 0.00 0.00 0.00 0.00 0.00 0.00 0.00 0.00 0.01 0.01 0.02 0.01 0.01 0.03 0.03 0.03 0.02 0.01 0.02 0.03 0.03 0.03 0.03
0.31 0.37 0.38 0.31 0.20 0.13 0.05 0.03 0.02 0.01 0.00 0.00 0.00 0.00 0.00 0.00 0.00 0.00 0.00 0.00 0.00 0.00 0.00 0.00 0.00 0.00 0.00 0.00 0.00 0.00 0.00 0.00 0.00 0.00 0.00 0.00 0.00 0.01 0.01 0.01 0.01 0.03 0.03 0.03 0.02 0.01 0.01 0.02 0.04 0.04 0.03 0.04 0.04 0.05
0.41 0.30 0.25 0.20 0.11 0.05 0.03 0.03 0.03 0.02 0.00 0.00 0.01 0.00 0.00 0.00 0.00 0.00 0.00 0.02 0.02 0.02 0.00 0.00 0.00 0.00 0.00 0.00 0.00 0.00 0.00 0.00 0.00 0.00 0.01 0.01 0.02 0.01 0.01 0.01 0.02 0.03 0.02 0.03 0.03 0.04 0.04 0.04 0.04 0.04 0.04 0.05 0.07 0.08
0.27 0.16 0.11 0.06 0.04 0.05 0.03 0.02 0.02 0.01 0.01 0.03 0.02 0.02 0.01 0.00 0.00 0.00 0.03 0.05 0.03 0.02 0.01 0.01 0.01 0.00 0.01 0.01 0.01 0.00 0.00 0.00 0.00 0.00 0.01 0.01 0.02 0.03 0.03 0.03 0.03 0.03 0.04 0.05 0.09 0.08 0.04 0.03 0.04 0.05 0.05 0.05 0.06 0.10
0.11 0.07 0.03 0.03 0.05 0.09 0.09 0.06 0.07 0.07 0.04 0.04 0.02 0.02 0.02 0.01 0.00 0.03 0.04 0.04 0.04 0.04 0.01 0.00 0.00 0.01 0.01 0.01 0.00 0.00 0.00 0.00 0.00 0.01 0.01 0.02 0.03 0.04 0.09 0.14 0.15 0.11 0.05 0.06 0.09 0.11 0.12 0.09 0.08 0.06 0.07 0.06 0.06 0.13
0.05 0.04 0.05 0.09 0.13 0.13 0.12 0.11 0.11 0.10 0.08 0.06 0.03 0.03 0.02 0.01 0.02 0.04 0.04 0.04 0.03 0.03 0.02 0.00 0.00 0.00 0.00 0.01 0.01 0.01 0.00 0.00 0.00 0.00 0.02 0.05 0.08 0.08 0.08 0.09 0.10 0.08 0.07 0.08 0.09 0.09 0.11 0.13 0.11 0.10 0.10 0.13 0.16 0.17
0.09 0.13 0.11 0.10 0.06 0.04 0.04 0.06 0.05 0.04 0.03 0.02 0.01 0.01 0.01 0.02 0.05 0.04 0.03 0.02 0.02 0.01 0.01 0.01 0.01 0.01 0.01 0.01 0.01 0.02 0.01 0.01 0.02 0.02 0.01 0.03 0.08 0.07 0.05 0.06 0.06 0.06 0.06 0.05 0.04 0.08 0.12 0.14 0.12 0.15 0.21 0.20 0.16 0.14
0.06 0.05 0.03 0.02 0.01 0.02 0.02 0.02 0.02 0.01 0.01 0.00 0.00 0.00 0.02 0.03 0.05 0.04 0.02 0.01 0.02 0.03 0.03 0.03 0.02 0.01 0.02 0.02 0.01 0.04 0.07 0.05 0.06 0.08 0.08 0.08 0.08 0.07 0.05 0.05 0.05 0.06 0.06 0.06 0.04 0.03 0.05 0.05 0.06 0.14 0.09 0.07 0.09 0.10
0.01 0.01 0.01 0.01 0.01 0.02 0.01 0.01 0.00 0.00 0.00 0.00 0.00 0.01 0.07 0.05 0.06 0.03 0.03 0.04 0.02 0.01 0.01 0.01 0.01 0.02 0.03 0.03 0.05 0.05 0.07 0.07 0.07 0.08 0.08 0.08 0.07 0.05 0.05 0.04 0.03 0.04 0.04 0.04 0.04 0.05 0.06 0.06 0.08 0.10 0.06 0.05 0.07 0.06
0.01 0.02 0.01 0.01 0.02 0.01 0.00 0.00 0.00 0.00 0.00 0.00 0.03 0.02 0.04 0.03 0.03 0.04 0.03 0.02 0.01 0.02 0.03 0.04 0.04 0.05 0.07 0.09 0.09 0.09 0.08 0.07 0.05 0.05 0.06 0.07 0.06 0.06 0.04 0.03 0.03 0.04 0.04 0.04 0.05 0.07 0.07 0.07 0.07 0.07 0.07 0.06 0.06 0.06
0.01 0.01 0.01 0.01 0.00 0.00 0.00 0.00 0.00 0.00 0.01 0.02 0.04 0.04 0.04 0.03 0.03 0.05 0.03 0.03 0.05 0.05 0.05 0.05 0.06 0.07 0.09 0.07 0.06 0.07 0.05 0.05 0.05 0.05 0.06 0.06 0.05 0.04 0.03 0.03 0.03 0.04 0.04 0.05 0.06 0.07 0.06 0.05 0.05 0.06 0.05 0.05 0.04 0.04

GFSWCAN_prec_precacc24_024.txt.gz
Total_Precipitation_Accumulation
0.32 0.06 0.01 0.01 0.00 0.00 0.00 0.00 0.00 0.00 0.00 0.00 0.00 0.00 0.00 0.00 0.00 0.00 0.00 0.00 0.00 0.00 0.00 0.00 0.00 0.00 0.00 0.00 0.00 0.00 0.00 0.00 0.00 0.00 0.00 0.00 0.00 0.00 0.00 0.00 0.00 0.00 0.00 0.00 0.01 0.01 0.01 0.00 0.00 0.02 0.03 0.02 0.02 0.01
0.49 0.14 0.03 0.00 0.00 0.00 0.00 0.00 0.00 0.01 0.00 0.00 0.00 0.00 0.00 0.00 0.00 0.00 0.00 0.00 0.00 0.00 0.00 0.00 0.00 0.00 0.00 0.00 0.00 0.00 0.00 0.00 0.00 0.00 0.00 0.00 0.00 0.00 0.00 0.00 0.00 0.00 0.00 0.00 0.02 0.01 0.00 0.00 0.01 0.02 0.01 0.04 0.03 0.01
0.67 0.28 0.10 0.01 0.00 0.00 0.00 0.00 0.00 0.01 0.00 0.00 0.01 0.01 0.00 0.00 0.00 0.00 0.00 0.00 0.00 0.00 0.00 0.00 0.00 0.00 0.00 0.00 0.00 0.00 0.00 0.00 0.00 0.00 0.00 0.00 0.01 0.00 0.00 0.00 0.00 0.00 0.00 0.00 0.01 0.00 0.00 0.01 0.00 0.01 0.01 0.00 0.00 0.01
0.73 0.43 0.20 0.05 0.00 0.00 0.00 0.00 0.00 0.01 0.01 0.00 0.01 0.01 0.01 0.00 0.00 0.00 0.00 0.00 0.00 0.00 0.04 0.00 0.00 0.00 0.00 0.00 0.00 0.00 0.00 0.00 0.00 0.00 0.00 0.01 0.01 0.00 0.00 0.00 0.00 0.00 0.00 0.00 0.01 0.00 0.01 0.02 0.04 0.03 0.01 0.01 0.00 0.00
0.62 0.46 0.27 0.09 0.04 0.01 0.00 0.00 0.01 0.00 0.01 0.01 0.01 0.01 0.01 0.00 0.00 0.00 0.00 0.00 0.00 0.02 0.02 0.00 0.00 0.00 0.00 0.00 0.00 0.00 0.00 0.00 0.00 0.00 0.01 0.01 0.00 0.00 0.01 0.04 0.04 0.00 0.00 0.02 0.02 0.02 0.04 0.08 0.04 0.03 0.02 0.01 0.00 0.00
0.50 0.37 0.32 0.15 0.07 0.06 0.02 0.01 0.01 0.01 0.01 0.01 0.01 0.01 0.00 0.00 0.00 0.00 0.00 0.00 0.00 0.00 0.00 0.01 0.00 0.00 0.00 0.00 0.00 0.00 0.00 0.00 0.00 0.00 0.01 0.01 0.00 0.01 0.07 0.05 0.00 0.00 0.00 0.01 0.02 0.02 0.05 0.06 0.02 0.00 0.01 0.00 0.00 0.00
0.38 0.29 0.26 0.18 0.11 0.09 0.12 0.06 0.02 0.01 0.01 0.01 0.01 0.00 0.00 0.00 0.00 0.02 0.02 0.00 0.00 0.01 0.03 0.02 0.00 0.00 0.00 0.00 0.00 0.00 0.00 0.00 0.00 0.02 0.01 0.00 0.00 0.07 0.11 0.03 0.00 0.00 0.00 0.00 0.00 0.02 0.03 0.01 0.01 0.00 0.00 0.00 0.00 0.00
0.28 0.19 0.14 0.14 0.12 0.14 0.16 0.20 0.11 0.05 0.03 0.01 0.01 0.01 0.02 0.04 0.02 0.03 0.01 0.00 0.00 0.02 0.02 0.01 0.00 0.00 0.00 0.00 0.00 0.00 0.02 0.03 0.02 0.03 0.01 0.00 0.01 0.04 0.05 0.00 0.00 0.00 0.00 0.00 0.00 0.01 0.04 0.03 0.01 0.00 0.00 0.00 0.00 0.01
0.18 0.12 0.06 0.06 0.08 0.09 0.15 0.24 0.27 0.20 0.11 0.10 0.09 0.10 0.11 0.08 0.06 0.03 0.03 0.03 0.01 0.06 0.05 0.01 0.00 0.00 0.00 0.00 0.00 0.00 0.01 0.01 0.01 0.00 0.00 0.01 0.02 0.04 0.01 0.00 0.00 0.00 0.00 0.00 0.01 0.00 0.00 0.01 0.01 0.00 0.01 0.02 0.06 0.12
0.12 0.07 0.01 0.01 0.01 0.02 0.04 0.16 0.27 0.40 0.57 0.76 0.65 0.50 0.29 0.16 0.17 0.11 0.15 0.25 0.32 0.25 0.12 0.05 0.02 0.01 0.00 0.00 0.00 0.02 0.05 0.02 0.01 0.00 0.00 0.00 0.00 0.00 0.00 0.00 0.00 0.00 0.00 0.00 0.00 0.00 0.02 0.03 0.04 0.08 0.13 0.15 0.14 0.08
0.11 0.07 0.02 0.00 0.00 0.00 0.01 0.10 0.30 0.57 1.33 1.55 1.36 0.88 0.45 0.39 0.19 0.29 0.34 0.33 0.27 0.15 0.09 0.09 0.07 0.05 0.02 0.04 0.11 0.21 0.20 0.07 0.04 0.01 0.01 0.02 0.00 0.00 0.00 0.00 0.00 0.00 0.00 0.00 0.00 0.01 0.03 0.09 0.22 0.21 0.11 0.06 0.03 0.01
0.07 0.06 0.04 0.02 0.01 0.02 0.02 0.10 0.31 0.61 1.05 1.47 1.13 0.74 0.66 0.85 0.70 0.80 0.80 0.39 0.12 0.05 0.03 0.01 0.02 0.04 0.10 0.10 0.14 0.28 0.23 0.17 0.10 0.01 0.04 0.02 0.00 0.00 0.00 0.00 0.00 0.00 0.00 0.02 0.07 0.14 0.16 0.15 0.11 0.07 0.03 0.01 0.00 0.00
0.03 0.02 0.02 0.01 0.01 0.03 0.04 0.11 0.16 0.29 0.53 0.91 1.13 1.28 1.22 1.45 1.25 0.91 0.47 0.20 0.07 0.02 0.01 0.01 0.04 0.08 0.09 0.08 0.24 0.31 0.34 0.24 0.08 0.06 0.04 0.06 0.04 0.03 0.04 0.05 0.08 0.10 0.11 0.13 0.10 0.09 0.07 0.04 0.01 0.00 0.00 0.00 0.00 0.00
0.02 0.00 0.00 0.00 0.00 0.04 0.10 0.10 0.16 0.31 0.39 0.75 0.99 1.27 1.05 1.09 0.73 0.46 0.19 0.07 0.06 0.05 0.02 0.02 0.05 0.06 0.08 0.15 0.42 0.52 0.51 0.28 0.26 0.15 0.09 0.16 0.25 0.21 0.04 0.00 0.00 0.01 0.01 0.01 0.00 0.00 0.00 0.00 0.00 0.00 0.00 0.00 0.00 0.00
0.07 0.01 0.00 0.01 0.01 0.02 0.11 0.15 0.11 0.09 0.12 0.21 0.30 0.51 0.52 0.42 0.30 0.20 0.17 0.16 0.16 0.17 0.22 0.26 0.30 0.28 0.29 0.43 0.43 0.37 0.33 0.31 0.26 0.28 0.28 0.24 0.25 0.13 0.00 0.00 0.01 0.03 0.03 0.01 0.00 0.00 0.00 0.00 0.00 0.00 0.00 0.00 0.00 0.00
0.21 0.05 0.01 0.00 0.01 0.03 0.04 0.16 0.09 0.09 0.05 0.01 0.08 0.17 0.22 0.18 0.21 0.22 0.24 0.25 0.25 0.33 0.33 0.33 0.34 0.33 0.38 0.33 0.27 0.27 0.27 0.31 0.32 0.12 0.04 0.04 0.05 0.05 0.06 0.06 0.09 0.08 0.02 0.00 0.00 0.00 0.00 0.00 0.00 0.00 0.00 0.00 0.00 0.00
0.37 0.09 0.01 0.00 0.00 0.04 0.07 0.09 0.15 0.11 0.09 0.00 0.01 0.02 0.04 0.06 0.08 0.12 0.13 0.12 0.13 0.17 0.19 0.16 0.16 0.17 0.16 0.19 0.22 0.20 0.23 0.16 0.06 0.02 0.01 0.01 0.01 0.00 0.00 0.00 0.00 0.00 0.00 0.00 0.00 0.00 0.00 0.00 0.00 0.00 0.00 0.00 0.00 0.00
0.44 0.09 0.01 0.00 0.01 0.02 0.08 0.02 0.07 0.03 0.00 0.00 0.00 0.00 0.00 0.01 0.01 0.01 0.01 0.00 0.00 0.01 0.02 0.02 0.02 0.03 0.08 0.10 0.10 0.05 0.04 0.02 0.02 0.00 0.00 0.00 0.00 0.00 0.00 0.00 0.00 0.00 0.00 0.00 0.00 0.00 0.00 0.00 0.00 0.00 0.00 0.00 0.00 0.00
0.26 0.18 0.04 0.05 0.01 0.01 0.07 0.05 0.01 0.00 0.00 0.00 0.01 0.01 0.01 0.01 0.00 0.00 0.00 0.00 0.00 0.00 0.00 0.00 0.00 0.00 0.00 0.00 0.00 0.00 0.00 0.00 0.00 0.00 0.00 0.00 0.00 0.00 0.00 0.00 0.00 0.00 0.00 0.00 0.00 0.00 0.00 0.00 0.00 0.00 0.00 0.00 0.01 0.02
0.50 0.46 0.25 0.13 0.01 0.00 0.00 0.01 0.00 0.00 0.00 0.00 0.00 0.00 0.00 0.01 0.00 0.01 0.01 0.00 0.00 0.00 0.01 0.01 0.00 0.00 0.00 0.00 0.00 0.00 0.00 0.00 0.00 0.00 0.00 0.00 0.00 0.00 0.00 0.00 0.00 0.00 0.00 0.00 0.00 0.00 0.00 0.00 0.01 0.01 0.02 0.04 0.04 0.03
0.62 0.65 0.46 0.25 0.09 0.00 0.00 0.00 0.00 0.00 0.00 0.00 0.00 0.00 0.00 0.01 0.00 0.01 0.00 0.00 0.01 0.02 0.00 0.00 0.00 0.00 0.00 0.00 0.00 0.00 0.00 0.00 0.00 0.00 0.00 0.00 0.00 0.00 0.00 0.00 0.00 0.00 0.00 0.00 0.00 0.00 0.01 0.01 0.02 0.03 0.06 0.03 0.02 0.02
0.37 0.45 0.41 0.35 0.21 0.03 0.00 0.00 0.00 0.00 0.00 0.00 0.00 0.00 0.00 0.01 0.01 0.01 0.00 0.00 0.00 0.00 0.00 0.00 0.00 0.00 0.00 0.00 0.00 0.00 0.00 0.00 0.00 0.00 0.00 0.00 0.00 0.00 0.00 0.00 0.00 0.00 0.00 0.02 0.02 0.01 0.01 0.02 0.03 0.03 0.02 0.02 0.03 0.03
0.29 0.38 0.37 0.37 0.27 0.09 0.04 0.00 0.00 0.00 0.00 0.01 0.02 0.00 0.00 0.00 0.01 0.00 0.01 0.00 0.00 0.00 0.00 0.00 0.00 0.00 0.00 0.00 0.00 0.00 0.00 0.00 0.00 0.00 0.00 0.00 0.00 0.00 0.01 0.01 0.02 0.02 0.02 0.01 0.03 0.03 0.03 0.02 0.01 0.02 0.03 0.03 0.03 0.03
0.31 0.37 0.38 0.31 0.20 0.13 0.05 0.03 0.02 0.01 0.00 0.01 0.01 0.01 0.00 0.00 0.01 0.01 0.01 0.01 0.01 0.00 0.00 0.00 0.00 0.00 0.00 0.00 0.00 0.00 0.00 0.00 0.00 0.00 0.00 0.00 0.00 0.01 0.02 0.01 0.01 0.03 0.03 0.03 0.02 0.01 0.01 0.02 0.04 0.04 0.03 0.04 0.04 0.05
0.41 0.30 0.25 0.20 0.11 0.05 0.03 0.03 0.03 0.02 0.01 0.00 0.01 0.00 0.00 0.00 0.00 0.00 0.01 0.03 0.03 0.03 0.02 0.01 0.01 0.01 0.00 0.01 0.01 0.01 0.00 0.00 0.00 0.00 0.01 0.01 0.02 0.01 0.01 0.01 0.02 0.03 0.02 0.03 0.03 0.04 0.04 0.04 0.04 0.04 0.04 0.05 0.07 0.08
0.27 0.16 0.12 0.06 0.04 0.06 0.03 0.02 0.02 0.02 0.01 0.04 0.03 0.03 0.01 0.01 0.01 0.01 0.04 0.07 0.05 0.05 0.04 0.02 0.02 0.02 0.02 0.02 0.02 0.01 0.00 0.00 0.00 0.00 0.01 0.01 0.02 0.03 0.03 0.03 0.03 0.03 0.04 0.05 0.09 0.08 0.04 0.03 0.04 0.05 0.06 0.05 0.07 0.10
0.11 0.07 0.03 0.03 0.05 0.10 0.10 0.06 0.07 0.08 0.06 0.06 0.04 0.04 0.05 0.05 0.03 0.05 0.05 0.06 0.06 0.06 0.03 0.01 0.00 0.01 0.02 0.02 0.01 0.00 0.00 0.00 0.00 0.01 0.01 0.02 0.03 0.04 0.09 0.14 0.15 0.11 0.05 0.06 0.09 0.11 0.12 0.10 0.08 0.06 0.07 0.06 0.07 0.13
0.05 0.04 0.05 0.09 0.14 0.16 0.16 0.13 0.14 0.13 0.12 0.12 0.07 0.07 0.08 0.05 0.04 0.06 0.06 0.07 0.06 0.04 0.02 0.01 0.00 0.00 0.01 0.01 0.01 0.01 0.00 0.00 0.01 0.01 0.02 0.05 0.08 0.08 0.08 0.09 0.10 0.08 0.07 0.08 0.09 0.09 0.11 0.13 0.12 0.10 0.11 0.14 0.16 0.17
0.11 0.15 0.12 0.11 0.07 0.06 0.08 0.10 0.10 0.10 0.09 0.08 0.04 0.04 0.04 0.03 0.06 0.06 0.05 0.04 0.03 0.01 0.01 0.01 0.01 0.01 0.01 0.01 0.01 0.02 0.01 0.01 0.02 0.02 0.01 0.03 0.08 0.07 0.05 0.06 0.06 0.06 0.06 0.05 0.04 0.08 0.12 0.14 0.12 0.16 0.22 0.21 0.17 0.14
0.06 0.06 0.04 0.02 0.02 0.03 0.02 0.03 0.03 0.03 0.02 0.01 0.01 0.01 0.02 0.04 0.06 0.05 0.03 0.02 0.02 0.04 0.04 0.04 0.03 0.01 0.02 0.02 0.02 0.04 0.07 0.05 0.06 0.09 0.08 0.08 0.09 0.07 0.05 0.05 0.05 0.06 0.06 0.06 0.05 0.03 0.05 0.05 0.06 0.14 0.09 0.07 0.09 0.10
0.01 0.01 0.01 0.01 0.02 0.02 0.01 0.01 0.01 0.02 0.02 0.01 0.01 0.02 0.08 0.06 0.07 0.04 0.03 0.05 0.03 0.01 0.01 0.01 0.01 0.02 0.03 0.03 0.05 0.05 0.07 0.07 0.07 0.08 0.08 0.08 0.07 0.05 0.05 0.04 0.03 0.04 0.04 0.04 0.04 0.05 0.06 0.06 0.08 0.10 0.06 0.05 0.07 0.06
0.01 0.02 0.01 0.01 0.02 0.01 0.00 0.00 0.00 0.00 0.01 0.01 0.03 0.03 0.05 0.04 0.03 0.04 0.04 0.02 0.01 0.02 0.03 0.04 0.04 0.05 0.07 0.09 0.09 0.09 0.08 0.07 0.05 0.05 0.07 0.07 0.06 0.06 0.04 0.03 0.03 0.04 0.04 0.04 0.05 0.07 0.07 0.07 0.07 0.07 0.07 0.06 0.06 0.06
0.01 0.01 0.01 0.01 0.01 0.01 0.00 0.00 0.00 0.00 0.01 0.02 0.05 0.05 0.05 0.04 0.04 0.05 0.04 0.03 0.05 0.05 0.05 0.05 0.06 0.07 0.09 0.07 0.06 0.07 0.05 0.05 0.05 0.05 0.06 0.06 0.05 0.04 0.03 0.03 0.03 0.04 0.04 0.05 0.06 0.07 0.06 0.05 0.05 0.06 0.05 0.05 0.04 0.04

GFSWCAN_prec_precacc24_027.txt.gz
Total_Precipitation_Accumulation
0.33 0.08 0.04 0.01 0.00 0.00 0.00 0.00 0.00 0.00 0.00 0.00 0.00 0.00 0.00 0.00 0.00 0.00 0.00 0.00 0.00 0.00 0.00 0.00 0.00 0.00 0.00 0.00 0.00 0.00 0.00 0.00 0.00 0.00 0.00 0.00 0.00 0.00 0.00 0.00 0.00 0.00 0.00 0.00 0.01 0.01 0.01 0.00 0.00 0.01 0.02 0.02 0.02 0.01
0.48 0.15 0.03 0.00 0.00 0.00 0.00 0.00 0.00 0.01 0.00 0.01 0.01 0.00 0.00 0.00 0.00 0.00 0.02 0.01 0.00 0.00 0.00 0.00 0.00 0.00 0.00 0.00 0.00 0.00 0.00 0.00 0.00 0.00 0.00 0.00 0.00 0.00 0.00 0.00 0.00 0.00 0.00 0.00 0.01 0.00 0.00 0.00 0.01 0.01 0.00 0.02 0.03 0.01
0.67 0.27 0.10 0.01 0.00 0.00 0.00 0.00 0.00 0.02 0.01 0.01 0.01 0.01 0.00 0.00 0.00 0.00 0.01 0.01 0.00 0.00 0.00 0.00 0.00 0.00 0.00 0.00 0.00 0.00 0.00 0.00 0.00 0.00 0.00 0.00 0.01 0.00 0.00 0.00 0.00 0.00 0.00 0.00 0.01 0.00 0.00 0.01 0.00 0.01 0.00 0.00 0.00 0.01
0.72 0.42 0.18 0.03 0.00 0.00 0.00 0.00 0.00 0.02 0.01 0.01 0.01 0.01 0.01 0.00 0.00 0.00 0.00 0.00 0.00 0.00 0.04 0.00 0.00 0.00 0.00 0.00 0.00 0.00 0.00 0.00 0.00 0.00 0.00 0.01 0.01 0.00 0.00 0.00 0.00 0.00 0.00 0.00 0.01 0.00 0.00 0.01 0.00 0.00 0.00 0.01 0.00 0.00
0.62 0.45 0.24 0.07 0.01 0.00 0.00 0.00 0.01 0.01 0.01 0.03 0.02 0.02 0.01 0.01 0.00 0.00 0.00 0.00 0.00 0.02 0.02 0.00 0.00 0.00 0.00 0.00 0.00 0.00 0.00 0.00 0.00 0.00 0.01 0.01 0.00 0.00 0.00 0.00 0.00 0.00 0.00 0.02 0.02 0.01 0.01 0.03 0.02 0.02 0.01 0.01 0.00 0.00
0.50 0.36 0.28 0.11 0.04 0.01 0.00 0.01 0.00 0.01 0.01 0.02 0.02 0.02 0.00 0.00 0.00 0.00 0.00 0.00 0.00 0.00 0.00 0.01 0.00 0.00 0.00 0.00 0.00 0.00 0.00 0.00 0.00 0.00 0.00 0.00 0.00 0.01 0.01 0.01 0.00 0.00 0.00 0.01 0.01 0.01 0.03 0.05 0.02 0.00 0.01 0.00 0.00 0.00
0.38 0.29 0.25 0.15 0.05 0.03 0.01 0.01 0.01 0.01 0.01 0.01 0.01 0.01 0.00 0.00 0.01 0.02 0.02 0.01 0.00 0.01 0.03 0.02 0.00 0.00 0.00 0.00 0.00 0.00 0.00 0.00 0.00 0.02 0.01 0.00 0.00 0.03 0.02 0.01 0.00 0.00 0.00 0.00 0.00 0.01 0.03 0.01 0.01 0.00 0.00 0.00 0.00 0.00
0.28 0.19 0.15 0.12 0.06 0.04 0.05 0.03 0.02 0.02 0.02 0.01 0.01 0.00 0.01 0.00 0.00 0.02 0.00 0.00 0.00 0.02 0.02 0.01 0.00 0.00 0.00 0.00 0.00 0.00 0.02 0.03 0.02 0.03 0.01 0.00 0.01 0.02 0.01 0.00 0.00 0.00 0.00 0.00 0.00 0.01 0.04 0.03 0.01 0.00 0.00 0.00 0.00 0.01
0.18 0.12 0.06 0.05 0.04 0.03 0.05 0.08 0.08 0.07 0.07 0.08 0.06 0.05 0.05 0.04 0.03 0.02 0.00 0.00 0.00 0.05 0.04 0.01 0.00 0.00 0.00 0.00 0.00 0.00 0.01 0.01 0.01 0.01 0.01 0.01 0.01 0.01 0.00 0.00 0.00 0.00 0.00 0.00 0.01 0.00 0.00 0.01 0.01 0.00 0.01 0.02 0.08 0.19
0.13 0.07 0.02 0.02 0.01 0.02 0.04 0.07 0.11 0.17 0.32 0.58 0.47 0.29 0.10 0.06 0.08 0.04 0.05 0.07 0.06 0.04 0.04 0.02 0.00 0.00 0.00 0.00 0.00 0.00 0.01 0.01 0.01 0.00 0.00 0.00 0.00 0.00 0.00 0.00 0.00 0.00 0.00 0.00 0.00 0.00 0.02 0.03 0.05 0.08 0.15 0.19 0.21 0.17
0.13 0.08 0.03 0.01 0.01 0.00 0.04 0.07 0.17 0.36 1.02 1.24 1.07 0.61 0.27 0.25 0.10 0.15 0.16 0.16 0.12 0.06 0.03 0.03 0.03 0.02 0.01 0.01 0.03 0.08 0.08 0.04 0.03 0.01 0.01 0.01 0.00 0.00 0.00 0.00 0.00 0.00 0.00 0.00 0.00 0.01 0.04 0.10 0.24 0.24 0.15 0.09 0.06 0.02
0.13 0.09 0.05 0.02 0.01 0.01 0.01 0.11 0.25 0.50 0.91 1.23 0.89 0.50 0.48 0.65 0.53 0.66 0.63 0.28 0.09 0.04 0.02 0.01 0.01 0.03 0.09 0.09 0.11 0.20 0.19 0.15 0.09 0.01 0.03 0.02 0.01 0.00 0.00 0.00 0.00 0.00 0.00 0.02 0.07 0.15 0.18 0.18 0.13 0.09 0.04 0.02 0.01 0.01
0.14 0.10 0.09 0.06 0.02 0.04 0.02 0.06 0.12 0.26 0.49 0.87 1.09 1.19 1.13 1.37 1.21 0.90 0.47 0.19 0.06 0.02 0.01 0.01 0.03 0.06 0.07 0.07 0.22 0.29 0.33 0.24 0.07 0.07 0.06 0.08 0.06 0.06 0.08 0.07 0.08 0.10 0.11 0.13 0.10 0.09 0.07 0.04 0.01 0.00 0.01 0.00 0.00 0.00
0.06 0.06 0.08 0.08 0.07 0.10 0.11 0.09 0.15 0.30 0.38 0.74 0.98 1.26 1.05 1.08 0.73 0.46 0.19 0.07 0.06 0.05 0.02 0.02 0.05 0.06 0.07 0.13 0.42 0.54 0.54 0.30 0.29 0.16 0.10 0.17 0.27 0.24 0.06 0.01 0.01 0.01 0.01 0.01 0.00 0.00 0.00 0.00 0.00 0.00 0.00 0.00 0.00 0.00
0.05 0.01 0.01 0.02 0.04 0.08 0.16 0.16 0.12 0.08 0.14 0.24 0.31 0.52 0.53 0.42 0.30 0.20 0.17 0.16 0.16 0.17 0.22 0.26 0.30 0.27 0.29 0.43 0.44 0.37 0.34 0.32 0.26 0.28 0.28 0.25 0.27 0.13 0.00 0.00 0.01 0.03 0.03 0.01 0.00 0.00 0.00 0.00 0.00 0.00 0.00 0.00 0.00 0.00
0.11 0.05 0.01 0.00 0.00 0.02 0.05 0.16 0.09 0.10 0.09 0.08 0.12 0.20 0.24 0.19 0.21 0.23 0.25 0.27 0.27 0.34 0.33 0.32 0.33 0.33 0.38 0.35 0.27 0.28 0.28 0.31 0.32 0.12 0.04 0.05 0.07 0.07 0.07 0.06 0.09 0.08 0.02 0.00 0.00 0.00 0.00 0.00 0.00 0.00 0.00 0.00 0.00 0.00
0.19 0.08 0.01 0.00 0.00 0.04 0.07 0.09 0.15 0.11 0.10 0.01 0.01 0.03 0.05 0.07 0.09 0.14 0.15 0.14 0.14 0.17 0.20 0.16 0.16 0.17 0.17 0.19 0.23 0.21 0.23 0.16 0.06 0.02 0.02 0.02 0.01 0.00 0.00 0.00 0.00 0.00 0.00 0.00 0.00 0.00 0.00 0.00 0.00 0.00 0.00 0.00 0.00 0.00
0.22 0.08 0.01 0.00 0.01 0.02 0.08 0.02 0.07 0.03 0.00 0.01 0.01 0.01 0.01 0.01 0.01 0.01 0.01 0.00 0.00 0.01 0.02 0.02 0.02 0.03 0.08 0.10 0.10 0.05 0.04 0.02 0.02 0.00 0.00 0.00 0.00 0.00 0.00 0.00 0.00 0.00 0.00 0.00 0.00 0.00 0.00 0.00 0.00 0.00 0.00 0.00 0.00 0.00
0.10 0.13 0.02 0.04 0.01 0.01 0.07 0.05 0.01 0.00 0.00 0.01 0.02 0.02 0.02 0.01 0.01 0.00 0.00 0.00 0.00 0.00 0.00 0.00 0.00 0.00 0.00 0.00 0.00 0.00 0.00 0.00 0.00 0.00 0.00 0.00 0.00 0.00 0.00 0.00 0.00 0.00 0.00 0.00 0.00 0.00 0.00 0.00 0.00 0.00 0.00 0.00 0.01 0.02
0.21 0.27 0.20 0.12 0.01 0.00 0.00 0.01 0.00 0.00 0.00 0.01 0.01 0.01 0.01 0.01 0.01 0.01 0.01 0.00 0.00 0.00 0.01 0.00 0.00 0.00 0.00 0.00 0.00 0.00 0.00 0.00 0.00 0.00 0.00 0.00 0.00 0.00 0.00 0.00 0.00 0.00 0.00 0.00 0.00 0.00 0.00 0.00 0.01 0.01 0.02 0.04 0.03 0.02
0.42 0.50 0.42 0.25 0.09 0.00 0.00 0.00 0.00 0.00 0.00 0.00 0.00 0.00 0.00 0.01 0.00 0.01 0.00 0.00 0.01 0.02 0.00 0.00 0.00 0.00 0.00 0.00 0.00 0.00 0.00 0.00 0.00 0.00 0.00 0.00 0.00 0.00 0.00 0.00 0.00 0.00 0.00 0.00 0.00 0.00 0.01 0.01 0.02 0.03 0.05 0.02 0.02 0.02
0.33 0.43 0.41 0.35 0.21 0.03 0.00 0.00 0.00 0.00 0.00 0.00 0.00 0.00 0.00 0.01 0.01 0.01 0.00 0.00 0.00 0.00 0.00 0.00 0.00 0.00 0.00 0.00 0.00 0.00 0.00 0.00 0.00 0.00 0.00 0.00 0.00 0.00 0.00 0.00 0.00 0.00 0.00 0.02 0.02 0.01 0.01 0.02 0.03 0.03 0.02 0.01 0.02 0.03
0.29 0.38 0.37 0.37 0.27 0.09 0.04 0.00 0.00 0.00 0.00 0.01 0.02 0.00 0.00 0.00 0.01 0.00 0.01 0.01 0.00 0.00 0.00 0.01 0.01 0.02 0.01 0.01 0.00 0.00 0.00 0.00 0.00 0.00 0.00 0.00 0.00 0.00 0.01 0.01 0.02 0.02 0.02 0.01 0.03 0.03 0.03 0.02 0.01 0.02 0.03 0.03 0.03 0.03
0.31 0.37 0.38 0.31 0.20 0.13 0.05 0.03 0.02 0.01 0.00 0.01 0.01 0.01 0.00 0.00 0.00 0.01 0.01 0.01 0.02 0.01 0.01 0.02 0.03 0.03 0.02 0.00 0.00 0.00 0.00 0.00 0.00 0.00 0.00 0.00 0.00 0.01 0.02 0.01 0.01 0.03 0.03 0.03 0.02 0.01 0.01 0.02 0.04 0.03 0.02 0.03 0.04 0.05
0.41 0.30 0.25 0.20 0.11 0.05 0.03 0.02 0.03 0.02 0.01 0.00 0.01 0.01 0.01 0.00 0.01 0.01 0.01 0.05 0.05 0.05 0.05 0.05 0.04 0.03 0.02 0.03 0.03 0.02 0.00 0.00 0.00 0.00 0.01 0.01 0.02 0.01 0.01 0.01 0.02 0.03 0.02 0.03 0.03 0.04 0.04 0.03 0.04 0.04 0.04 0.05 0.07 0.07
0.27 0.16 0.12 0.06 0.04 0.06 0.03 0.02 0.02 0.01 0.01 0.04 0.04 0.04 0.02 0.02 0.02 0.02 0.05 0.09 0.08 0.08 0.07 0.06 0.04 0.03 0.03 0.03 0.03 0.02 0.01 0.00 0.00 0.00 0.01 0.01 0.02 0.03 0.03 0.03 0.03 0.03 0.04 0.05 0.08 0.07 0.04 0.03 0.04 0.05 0.05 0.04 0.06 0.10
0.11 0.07 0.03 0.03 0.06 0.10 0.11 0.06 0.07 0.08 0.06 0.07 0.05 0.05 0.07 0.08 0.05 0.07 0.08 0.10 0.10 0.11 0.08 0.05 0.03 0.02 0.03 0.02 0.01 0.00 0.00 0.00 0.00 0.01 0.01 0.02 0.03 0.04 0.08 0.12 0.13 0.10 0.04 0.05 0.08 0.10 0.11 0.09 0.07 0.06 0.07 0.06 0.07 0.13
0.05 0.05 0.05 0.09 0.14 0.16 0.17 0.14 0.15 0.16 0.15 0.15 0.10 0.10 0.11 0.08 0.08 0.10 0.10 0.11 0.09 0.07 0.05 0.03 0.01 0.01 0.01 0.01 0.01 0.01 0.00 0.00 0.01 0.01 0.02 0.05 0.08 0.07 0.06 0.07 0.07 0.06 0.06 0.07 0.09 0.08 0.10 0.12 0.10 0.09 0.10 0.13 0.16 0.17
0.11 0.16 0.12 0.12 0.08 0.07 0.09 0.11 0.12 0.12 0.12 0.11 0.07 0.06 0.06 0.05 0.07 0.07 0.06 0.05 0.04 0.02 0.02 0.02 0.02 0.01 0.01 0.01 0.01 0.02 0.01 0.01 0.01 0.01 0.01 0.02 0.08 0.07 0.04 0.05 0.06 0.05 0.05 0.05 0.04 0.07 0.10 0.12 0.11 0.15 0.21 0.20 0.17 0.14
0.06 0.06 0.04 0.02 0.02 0.03 0.03 0.03 0.04 0.04 0.03 0.02 0.01 0.01 0.02 0.05 0.07 0.07 0.04 0.03 0.03 0.04 0.05 0.04 0.03 0.01 0.01 0.01 0.01 0.04 0.06 0.03 0.03 0.05 0.06 0.06 0.07 0.06 0.05 0.04 0.04 0.04 0.05 0.05 0.04 0.03 0.05 0.05 0.06 0.13 0.09 0.07 0.09 0.10
0.01 0.01 0.01 0.01 0.02 0.02 0.01 0.01 0.01 0.04 0.03 0.02 0.01 0.02 0.08 0.07 0.07 0.05 0.04 0.05 0.03 0.02 0.01 0.01 0.01 0.02 0.02 0.02 0.03 0.03 0.04 0.04 0.04 0.05 0.05 0.06 0.05 0.04 0.04 0.03 0.03 0.04 0.04 0.04 0.04 0.05 0.06 0.05 0.08 0.10 0.06 0.05 0.06 0.06
0.01 0.01 0.01 0.01 0.02 0.01 0.00 0.00 0.00 0.00 0.01 0.01 0.04 0.03 0.05 0.04 0.03 0.04 0.04 0.02 0.01 0.01 0.01 0.01 0.02 0.03 0.04 0.05 0.05 0.05 0.05 0.04 0.03 0.03 0.04 0.05 0.04 0.04 0.04 0.03 0.03 0.04 0.04 0.04 0.05 0.06 0.07 0.06 0.07 0.07 0.07 0.06 0.06 0.05
0.01 0.01 0.01 0.01 0.01 0.01 0.01 0.00 0.00 0.00 0.01 0.03 0.05 0.05 0.05 0.04 0.04 0.05 0.04 0.01 0.02 0.01 0.01 0.02 0.02 0.03 0.05 0.03 0.03 0.04 0.02 0.02 0.02 0.03 0.03 0.04 0.03 0.03 0.03 0.03 0.03 0.04 0.04 0.05 0.06 0.07 0.06 0.05 0.05 0.06 0.05 0.05 0.04 0.04

GFSWCAN_prec_precacc24_030.txt.gz
Total_Precipitation_Accumulation
0.34 0.10 0.18 0.22 0.15 0.07 0.04 0.01 0.00 0.00 0.00 0.00 0.00 0.00 0.00 0.00 0.00 0.01 0.00 0.00 0.00 0.00 0.00 0.00 0.00 0.00 0.00 0.00 0.00 0.00 0.00 0.00 0.00 0.00 0.00 0.00 0.00 0.00 0.00 0.00 0.00 0.00 0.00 0.00 0.00 0.00 0.01 0.00 0.00 0.00 0.01 0.01 0.00 0.00
0.55 0.27 0.19 0.11 0.05 0.03 0.00 0.00 0.00 0.01 0.01 0.01 0.01 0.00 0.00 0.00 0.00 0.01 0.02 0.02 0.00 0.00 0.00 0.00 0.00 0.00 0.00 0.00 0.00 0.00 0.00 0.00 0.00 0.00 0.00 0.00 0.00 0.00 0.00 0.00 0.00 0.00 0.00 0.00 0.00 0.00 0.00 0.00 0.01 0.01 0.00 0.01 0.01 0.01
0.77 0.33 0.12 0.02 0.00 0.00 0.00 0.00 0.00 0.02 0.01 0.01 0.01 0.01 0.00 0.00 0.00 0.01 0.02 0.04 0.01 0.00 0.00 0.00 0.00 0.00 0.00 0.00 0.00 0.00 0.00 0.00 0.00 0.00 0.00 0.00 0.01 0.00 0.00 0.00 0.00 0.00 0.00 0.00 0.00 0.00 0.00 0.00 0.00 0.00 0.00 0.00 0.00 0.01
0.73 0.42 0.17 0.03 0.00 0.00 0.00 0.00 0.01 0.03 0.02 0.01 0.01 0.01 0.01 0.00 0.01 0.01 0.01 0.02 0.02 0.01 0.04 0.00 0.00 0.00 0.00 0.00 0.00 0.00 0.00 0.00 0.00 0.00 0.00 0.01 0.01 0.00 0.00 0.00 0.00 0.00 0.00 0.00 0.00 0.00 0.00 0.01 0.00 0.00 0.00 0.01 0.00 0.00
0.62 0.45 0.24 0.07 0.01 0.00 0.01 0.01 0.02 0.03 0.06 0.04 0.03 0.01 0.01 0.01 0.01 0.01 0.01 0.01 0.01 0.03 0.03 0.00 0.00 0.00 0.00 0.00 0.00 0.00 0.00 0.00 0.00 0.00 0.01 0.01 0.00 0.00 0.00 0.00 0.00 0.00 0.00 0.01 0.01 0.01 0.01 0.03 0.01 0.01 0.01 0.01 0.00 0.00
0.50 0.36 0.28 0.10 0.03 0.01 0.00 0.01 0.04 0.08 0.06 0.03 0.04 0.01 0.01 0.01 0.01 0.01 0.01 0.00 0.00 0.00 0.00 0.01 0.00 0.00 0.00 0.00 0.00 0.00 0.00 0.00 0.00 0.00 0.00 0.00 0.00 0.00 0.00 0.00 0.00 0.00 0.00 0.00 0.01 0.01 0.03 0.04 0.01 0.00 0.01 0.00 0.00 0.00
0.38 0.29 0.25 0.15 0.05 0.02 0.00 0.01 0.03 0.04 0.01 0.02 0.06 0.03 0.03 0.04 0.03 0.03 0.03 0.01 0.01 0.01 0.02 0.01 0.00 0.00 0.00 0.00 0.00 0.00 0.00 0.00 0.00 0.02 0.01 0.00 0.00 0.03 0.01 0.00 0.00 0.00 0.00 0.00 0.00 0.01 0.03 0.01 0.01 0.00 0.00 0.00 0.00 0.00
0.28 0.19 0.15 0.12 0.06 0.02 0.01 0.01 0.01 0.01 0.01 0.03 0.05 0.06 0.05 0.05 0.02 0.02 0.00 0.00 0.00 0.02 0.02 0.01 0.00 0.00 0.00 0.00 0.00 0.00 0.02 0.03 0.02 0.02 0.01 0.00 0.01 0.02 0.01 0.00 0.00 0.00 0.00 0.00 0.00 0.01 0.04 0.03 0.01 0.00 0.00 0.00 0.00 0.02
0.18 0.12 0.07 0.05 0.04 0.03 0.01 0.01 0.01 0.02 0.01 0.01 0.03 0.03 0.02 0.02 0.02 0.01 0.00 0.00 0.00 0.05 0.04 0.01 0.00 0.00 0.00 0.00 0.00 0.00 0.01 0.01 0.01 0.01 0.01 0.01 0.01 0.00 0.00 0.00 0.00 0.00 0.00 0.00 0.01 0.00 0.00 0.01 0.01 0.00 0.01 0.03 0.10 0.26
0.13 0.07 0.02 0.02 0.01 0.02 0.03 0.00 0.01 0.03 0.13 0.26 0.25 0.16 0.03 0.03 0.04 0.01 0.02 0.02 0.00 0.00 0.00 0.00 0.00 0.00 0.00 0.00 0.00 0.00 0.00 0.00 0.00 0.00 0.00 0.00 0.00 0.00 0.00 0.00 0.00 0.00 0.00 0.00 0.00 0.00 0.02 0.04 0.05 0.09 0.16 0.20 0.22 0.19
0.14 0.08 0.03 0.01 0.01 0.01 0.03 0.03 0.01 0.08 0.54 0.78 0.65 0.35 0.16 0.16 0.05 0.08 0.06 0.06 0.01 0.00 0.00 0.00 0.00 0.00 0.00 0.00 0.01 0.02 0.03 0.01 0.01 0.00 0.00 0.01 0.00 0.00 0.00 0.00 0.00 0.00 0.00 0.00 0.00 0.01 0.04 0.10 0.25 0.25 0.16 0.09 0.06 0.02
0.13 0.09 0.05 0.02 0.01 0.02 0.01 0.08 0.09 0.13 0.37 0.74 0.59 0.33 0.32 0.52 0.39 0.45 0.44 0.15 0.03 0.00 0.01 0.00 0.00 0.01 0.02 0.03 0.06 0.10 0.11 0.10 0.06 0.00 0.02 0.02 0.01 0.01 0.00 0.00 0.00 0.00 0.00 0.02 0.07 0.15 0.18 0.18 0.13 0.09 0.04 0.02 0.01 0.01
0.16 0.11 0.10 0.06 0.02 0.03 0.02 0.04 0.06 0.10 0.26 0.57 0.78 0.85 0.85 1.09 1.04 0.78 0.39 0.14 0.04 0.01 0.01 0.00 0.01 0.03 0.06 0.06 0.15 0.25 0.31 0.23 0.07 0.07 0.07 0.09 0.07 0.08 0.09 0.08 0.08 0.10 0.11 0.13 0.10 0.09 0.07 0.04 0.01 0.00 0.01 0.00 0.00 0.00
0.08 0.08 0.09 0.08 0.07 0.10 0.08 0.05 0.08 0.09 0.20 0.53 0.80 1.07 0.95 0.98 0.68 0.44 0.19 0.07 0.06 0.05 0.02 0.02 0.05 0.06 0.07 0.12 0.39 0.54 0.55 0.31 0.30 0.17 0.10 0.18 0.28 0.27 0.08 0.01 0.01 0.01 0.01 0.01 0.00 0.00 0.00 0.00 0.00 0.00 0.00 0.00 0.00 0.00
0.01 0.02 0.04 0.05 0.07 0.12 0.13 0.09 0.07 0.04 0.11 0.22 0.28 0.46 0.49 0.39 0.28 0.19 0.17 0.16 0.15 0.17 0.22 0.26 0.30 0.27 0.28 0.41 0.43 0.39 0.36 0.33 0.27 0.28 0.28 0.25 0.28 0.15 0.01 0.01 0.01 0.03 0.03 0.01 0.00 0.00 0.00 0.00 0.00 0.00 0.00 0.00 0.00 0.00
0.00 0.00 0.01 0.02 0.04 0.07 0.06 0.13 0.07 0.09 0.11 0.11 0.15 0.20 0.23 0.18 0.20 0.22 0.25 0.27 0.27 0.34 0.34 0.33 0.33 0.32 0.39 0.36 0.28 0.28 0.29 0.31 0.33 0.12 0.04 0.05 0.07 0.07 0.07 0.06 0.09 0.08 0.02 0.00 0.00 0.00 0.00 0.00 0.00 0.00 0.00 0.00 0.00 0.00
0.00 0.02 0.01 0.00 0.00 0.03 0.03 0.08 0.15 0.14 0.13 0.06 0.07 0.07 0.08 0.10 0.13 0.17 0.18 0.17 0.17 0.21 0.24 0.17 0.16 0.17 0.16 0.19 0.23 0.21 0.23 0.16 0.06 0.02 0.02 0.02 0.01 0.00 0.00 0.00 0.00 0.00 0.00 0.00 0.00 0.00 0.00 0.00 0.00 0.00 0.00 0.00 0.00 0.00
0.02 0.02 0.00 0.00 0.01 0.01 0.03 0.01 0.06 0.03 0.01 0.01 0.02 0.02 0.01 0.02 0.02 0.02 0.01 0.00 0.01 0.02 0.02 0.02 0.02 0.03 0.08 0.10 0.10 0.05 0.04 0.02 0.02 0.01 0.00 0.00 0.00 0.00 0.00 0.00 0.00 0.00 0.00 0.00 0.00 0.00 0.00 0.00 0.00 0.00 0.00 0.00 0.00 0.00
0.03 0.05 0.01 0.04 0.01 0.01 0.05 0.04 0.01 0.00 0.01 0.01 0.03 0.03 0.03 0.03 0.02 0.01 0.00 0.00 0.00 0.00 0.00 0.00 0.00 0.00 0.00 0.00 0.00 0.00 0.00 0.00 0.00 0.00 0.00 0.01 0.00 0.00 0.00 0.00 0.00 0.00 0.00 0.00 0.00 0.00 0.00 0.00 0.00 0.00 0.00 0.00 0.01 0.02
0.01 0.08 0.13 0.10 0.01 0.00 0.00 0.01 0.00 0.00 0.00 0.01 0.01 0.01 0.01 0.02 0.01 0.01 0.01 0.00 0.00 0.00 0.00 0.00 0.00 0.00 0.00 0.00 0.00 0.00 0.00 0.00 0.00 0.00 0.00 0.00 0.00 0.00 0.00 0.00 0.00 0.00 0.00 0.00 0.00 0.00 0.00 0.00 0.01 0.01 0.02 0.04 0.03 0.02
0.08 0.20 0.26 0.18 0.07 0.00 0.00 0.00 0.00 0.00 0.00 0.00 0.01 0.00 0.00 0.01 0.00 0.01 0.00 0.00 0.01 0.01 0.00 0.00 0.00 0.00 0.00 0.00 0.00 0.00 0.00 0.00 0.00 0.00 0.00 0.00 0.00 0.00 0.00 0.00 0.00 0.00 0.00 0.00 0.00 0.00 0.01 0.01 0.02 0.03 0.05 0.02 0.02 0.01
0.06 0.24 0.31 0.30 0.20 0.03 0.00 0.00 0.00 0.00 0.00 0.00 0.00 0.00 0.00 0.01 0.01 0.01 0.00 0.00 0.00 0.00 0.01 0.01 0.00 0.00 0.00 0.00 0.00 0.00 0.00 0.00 0.00 0.00 0.00 0.00 0.00 0.00 0.00 0.00 0.00 0.00 0.00 0.02 0.02 0.01 0.01 0.02 0.03 0.03 0.02 0.01 0.02 0.02
0.20 0.34 0.36 0.37 0.27 0.09 0.04 0.00 0.00 0.00 0.00 0.01 0.02 0.00 0.00 0.00 0.01 0.00 0.01 0.01 0.01 0.01 0.02 0.02 0.04 0.04 0.03 0.02 0.00 0.00 0.00 0.00 0.00 0.00 0.00 0.00 0.00 0.00 0.01 0.01 0.02 0.02 0.02 0.01 0.03 0.03 0.03 0.02 0.01 0.02 0.03 0.02 0.02 0.02
0.31 0.37 0.38 0.31 0.20 0.13 0.05 0.03 0.01 0.01 0.00 0.01 0.01 0.01 0.00 0.00 0.01 0.01 0.01 0.02 0.04 0.02 0.03 0.05 0.06 0.08 0.07 0.04 0.03 0.01 0.00 0.00 0.00 0.00 0.00 0.00 0.01 0.01 0.02 0.01 0.01 0.03 0.03 0.03 0.02 0.01 0.01 0.02 0.04 0.03 0.02 0.03 0.03 0.05
0.41 0.30 0.25 0.20 0.11 0.05 0.03 0.02 0.03 0.02 0.01 0.00 0.01 0.01 0.01 0.00 0.01 0.01 0.02 0.07 0.07 0.07 0.09 0.10 0.10 0.09 0.08 0.08 0.06 0.03 0.01 0.01 0.00 0.01 0.01 0.02 0.02 0.01 0.01 0.01 0.02 0.03 0.02 0.03 0.03 0.03 0.03 0.03 0.03 0.03 0.03 0.05 0.06 0.07
0.27 0.16 0.12 0.06 0.04 0.06 0.03 0.02 0.02 0.01 0.01 0.04 0.04 0.04 0.03 0.03 0.03 0.03 0.06 0.11 0.10 0.11 0.11 0.11 0.09 0.07 0.06 0.05 0.05 0.04 0.02 0.01 0.01 0.00 0.01 0.01 0.02 0.03 0.03 0.03 0.03 0.03 0.04 0.04 0.07 0.07 0.04 0.03 0.04 0.04 0.05 0.04 0.06 0.09
0.11 0.07 0.03 0.03 0.06 0.10 0.11 0.06 0.07 0.08 0.06 0.08 0.06 0.05 0.08 0.09 0.06 0.08 0.10 0.12 0.13 0.15 0.12 0.10 0.07 0.06 0.06 0.05 0.03 0.02 0.00 0.00 0.00 0.01 0.01 0.02 0.03 0.04 0.07 0.10 0.12 0.09 0.03 0.04 0.07 0.09 0.10 0.09 0.07 0.05 0.06 0.06 0.07 0.13
0.05 0.05 0.05 0.09 0.14 0.16 0.17 0.14 0.16 0.16 0.16 0.16 0.11 0.10 0.12 0.09 0.10 0.11 0.11 0.13 0.11 0.10 0.07 0.04 0.02 0.02 0.02 0.02 0.02 0.01 0.01 0.00 0.01 0.01 0.02 0.05 0.07 0.05 0.04 0.05 0.05 0.04 0.04 0.06 0.07 0.07 0.08 0.10 0.10 0.09 0.09 0.12 0.16 0.17
0.11 0.16 0.12 0.11 0.08 0.07 0.09 0.11 0.12 0.13 0.12 0.12 0.08 0.06 0.06 0.05 0.08 0.07 0.07 0.06 0.06 0.03 0.02 0.03 0.03 0.02 0.02 0.01 0.01 0.02 0.01 0.00 0.00 0.00 0.00 0.01 0.05 0.03 0.02 0.03 0.04 0.04 0.04 0.04 0.03 0.05 0.07 0.11 0.10 0.13 0.19 0.19 0.16 0.13
0.06 0.06 0.05 0.02 0.03 0.04 0.04 0.04 0.04 0.04 0.03 0.02 0.02 0.02 0.03 0.05 0.08 0.08 0.05 0.04 0.03 0.05 0.06 0.05 0.04 0.02 0.01 0.01 0.01 0.03 0.05 0.02 0.01 0.03 0.03 0.03 0.04 0.03 0.03 0.03 0.03 0.03 0.04 0.04 0.04 0.03 0.04 0.04 0.06 0.13 0.09 0.06 0.08 0.10
0.01 0.01 0.01 0.01 0.02 0.03 0.02 0.01 0.03 0.05 0.04 0.02 0.02 0.02 0.09 0.07 0.07 0.05 0.04 0.06 0.04 0.02 0.02 0.01 0.01 0.01 0.01 0.02 0.02 0.02 0.02 0.01 0.02 0.02 0.03 0.03 0.03 0.02 0.02 0.02 0.02 0.03 0.04 0.04 0.04 0.05 0.06 0.05 0.08 0.09 0.06 0.05 0.06 0.06
0.00 0.01 0.00 0.01 0.02 0.01 0.00 0.00 0.00 0.01 0.02 0.02 0.04 0.03 0.05 0.04 0.04 0.04 0.04 0.03 0.01 0.01 0.01 0.01 0.01 0.02 0.02 0.03 0.03 0.03 0.03 0.02 0.02 0.02 0.03 0.03 0.02 0.02 0.02 0.02 0.02 0.03 0.04 0.04 0.05 0.06 0.07 0.06 0.07 0.06 0.07 0.05 0.06 0.05
0.01 0.01 0.01 0.01 0.01 0.01 0.01 0.00 0.00 0.00 0.02 0.03 0.06 0.05 0.05 0.05 0.04 0.05 0.04 0.02 0.01 0.01 0.01 0.01 0.01 0.02 0.03 0.02 0.01 0.02 0.01 0.01 0.01 0.01 0.02 0.02 0.01 0.01 0.01 0.02 0.03 0.03 0.04 0.05 0.06 0.07 0.06 0.05 0.05 0.06 0.05 0.05 0.04 0.04

GFSWCAN_prec_precacc24_033.txt.gz
Total_Precipitation_Accumulation
0.23 0.10 0.21 0.29 0.31 0.17 0.10 0.14 0.16 0.13 0.14 0.09 0.01 0.00 0.00 0.00 0.01 0.10 0.02 0.00 0.00 0.00 0.00 0.00 0.00 0.00 0.00 0.00 0.00 0.00 0.00 0.00 0.00 0.00 0.00 0.00 0.00 0.00 0.00 0.00 0.00 0.00 0.00 0.00 0.00 0.00 0.00 0.00 0.00 0.00 0.00 0.00 0.00 0.00
0.45 0.28 0.33 0.29 0.29 0.18 0.11 0.12 0.11 0.11 0.10 0.04 0.01 0.00 0.00 0.00 0.02 0.09 0.04 0.02 0.00 0.00 0.00 0.00 0.00 0.00 0.00 0.00 0.00 0.00 0.00 0.00 0.00 0.00 0.01 0.01 0.00 0.00 0.00 0.00 0.00 0.00 0.00 0.00 0.00 0.00 0.00 0.00 0.00 0.00 0.00 0.01 0.01 0.00
0.81 0.43 0.31 0.26 0.22 0.11 0.08 0.07 0.05 0.05 0.02 0.01 0.01 0.01 0.01 0.01 0.02 0.08 0.03 0.04 0.01 0.01 0.01 0.00 0.00 0.00 0.00 0.00 0.00 0.00 0.00 0.00 0.00 0.00 0.00 0.00 0.01 0.00 0.00 0.00 0.00 0.00 0.00 0.00 0.00 0.00 0.00 0.00 0.00 0.00 0.00 0.00 0.00 0.00
0.85 0.52 0.29 0.15 0.09 0.05 0.03 0.02 0.01 0.03 0.02 0.01 0.01 0.01 0.01 0.01 0.03 0.08 0.02 0.02 0.02 0.01 0.04 0.00 0.00 0.00 0.00 0.00 0.00 0.00 0.00 0.00 0.00 0.00 0.00 0.01 0.01 0.00 0.00 0.00 0.00 0.00 0.00 0.00 0.00 0.00 0.00 0.00 0.00 0.00 0.00 0.00 0.00 0.00
0.69 0.51 0.28 0.09 0.03 0.01 0.01 0.01 0.02 0.03 0.06 0.04 0.03 0.01 0.01 0.01 0.03 0.04 0.03 0.03 0.05 0.05 0.03 0.00 0.00 0.00 0.00 0.00 0.00 0.00 0.00 0.00 0.00 0.00 0.01 0.01 0.00 0.00 0.00 0.00 0.00 0.00 0.00 0.00 0.00 0.00 0.00 0.01 0.00 0.00 0.01 0.01 0.00 0.00
0.51 0.37 0.29 0.11 0.04 0.02 0.02 0.05 0.10 0.13 0.07 0.04 0.04 0.01 0.01 0.01 0.04 0.02 0.03 0.02 0.03 0.00 0.01 0.01 0.00 0.00 0.00 0.00 0.00 0.00 0.00 0.00 0.00 0.00 0.00 0.00 0.00 0.00 0.00 0.00 0.00 0.00 0.00 0.00 0.00 0.00 0.00 0.00 0.00 0.00 0.01 0.00 0.00 0.00
0.39 0.29 0.26 0.16 0.06 0.04 0.05 0.09 0.12 0.10 0.02 0.02 0.06 0.03 0.03 0.06 0.06 0.04 0.03 0.01 0.01 0.01 0.02 0.01 0.01 0.00 0.00 0.00 0.00 0.00 0.00 0.00 0.00 0.01 0.01 0.00 0.00 0.02 0.01 0.01 0.00 0.00 0.00 0.00 0.00 0.00 0.00 0.00 0.01 0.00 0.00 0.00 0.00 0.00
0.28 0.20 0.15 0.13 0.06 0.04 0.05 0.08 0.11 0.06 0.03 0.04 0.06 0.06 0.08 0.09 0.05 0.02 0.00 0.00 0.00 0.02 0.02 0.01 0.00 0.01 0.01 0.01 0.01 0.00 0.02 0.03 0.01 0.01 0.01 0.00 0.01 0.02 0.01 0.00 0.00 0.00 0.00 0.00 0.00 0.00 0.00 0.01 0.00 0.00 0.00 0.00 0.00 0.02
0.18 0.12 0.07 0.05 0.04 0.03 0.02 0.04 0.04 0.03 0.02 0.03 0.04 0.06 0.05 0.03 0.04 0.01 0.00 0.00 0.00 0.04 0.03 0.01 0.00 0.01 0.00 0.00 0.01 0.00 0.01 0.00 0.00 0.01 0.01 0.00 0.01 0.00 0.00 0.00 0.00 0.00 0.00 0.00 0.00 0.00 0.00 0.01 0.01 0.00 0.01 0.03 0.10 0.26
0.13 0.07 0.02 0.02 0.01 0.02 0.03 0.00 0.01 0.01 0.04 0.10 0.08 0.06 0.04 0.03 0.01 0.00 0.01 0.02 0.00 0.00 0.00 0.00 0.00 0.00 0.00 0.00 0.01 0.00 0.00 0.00 0.00 0.00 0.00 0.00 0.00 0.00 0.00 0.00 0.00 0.00 0.00 0.00 0.00 0.00 0.02 0.04 0.05 0.09 0.16 0.20 0.22 0.19
0.14 0.08 0.03 0.01 0.02 0.03 0.04 0.03 0.01 0.02 0.17 0.31 0.25 0.14 0.10 0.08 0.02 0.02 0.01 0.00 0.00 0.00 0.00 0.00 0.00 0.00 0.00 0.00 0.00 0.00 0.00 0.00 0.00 0.00 0.00 0.00 0.00 0.00 0.00 0.00 0.00 0.00 0.00 0.00 0.00 0.01 0.04 0.10 0.25 0.25 0.16 0.09 0.06 0.02
0.13 0.09 0.05 0.02 0.02 0.03 0.01 0.06 0.04 0.01 0.06 0.33 0.28 0.17 0.19 0.36 0.25 0.23 0.21 0.03 0.00 0.00 0.00 0.00 0.00 0.00 0.00 0.00 0.00 0.00 0.01 0.03 0.02 0.00 0.02 0.02 0.02 0.01 0.00 0.01 0.00 0.00 0.00 0.02 0.07 0.15 0.18 0.18 0.13 0.09 0.04 0.02 0.01 0.01
0.16 0.11 0.10 0.06 0.02 0.02 0.01 0.03 0.04 0.04 0.08 0.23 0.47 0.55 0.51 0.74 0.74 0.57 0.23 0.06 0.02 0.00 0.00 0.00 0.00 0.00 0.00 0.00 0.08 0.17 0.24 0.17 0.06 0.07 0.07 0.09 0.08 0.08 0.10 0.08 0.09 0.10 0.11 0.13 0.10 0.09 0.07 0.04 0.01 0.00 0.01 0.00 0.00 0.00
0.09 0.08 0.09 0.08 0.07 0.08 0.05 0.04 0.02 0.03 0.05 0.22 0.41 0.68 0.67 0.67 0.44 0.33 0.15 0.06 0.05 0.04 0.02 0.01 0.02 0.03 0.05 0.09 0.34 0.49 0.52 0.29 0.30 0.17 0.11 0.18 0.29 0.28 0.10 0.01 0.01 0.01 0.01 0.01 0.00 0.00 0.00 0.00 0.00 0.00 0.00 0.00 0.00 0.00
0.01 0.02 0.03 0.05 0.07 0.10 0.09 0.05 0.02 0.01 0.08 0.16 0.17 0.28 0.30 0.21 0.17 0.13 0.13 0.12 0.12 0.15 0.20 0.24 0.28 0.26 0.27 0.39 0.40 0.37 0.35 0.33 0.27 0.28 0.28 0.25 0.29 0.16 0.02 0.01 0.01 0.03 0.03 0.01 0.00 0.00 0.00 0.00 0.00 0.00 0.00 0.00 0.00 0.00
0.00 0.00 0.01 0.02 0.05 0.06 0.05 0.03 0.02 0.04 0.09 0.11 0.11 0.12 0.12 0.08 0.11 0.14 0.19 0.23 0.25 0.33 0.32 0.31 0.31 0.30 0.37 0.34 0.26 0.27 0.29 0.32 0.33 0.12 0.04 0.05 0.08 0.07 0.07 0.06 0.09 0.08 0.02 0.00 0.00 0.00 0.00 0.00 0.00 0.00 0.00 0.00 0.00 0.00
0.00 0.01 0.00 0.00 0.00 0.01 0.02 0.02 0.11 0.15 0.11 0.08 0.08 0.07 0.07 0.08 0.11 0.14 0.15 0.14 0.15 0.17 0.20 0.15 0.14 0.16 0.15 0.18 0.23 0.21 0.24 0.16 0.06 0.02 0.02 0.02 0.01 0.00 0.00 0.00 0.00 0.00 0.00 0.00 0.00 0.00 0.00 0.00 0.00 0.00 0.00 0.00 0.00 0.00
0.02 0.02 0.00 0.00 0.01 0.00 0.00 0.01 0.04 0.03 0.01 0.04 0.04 0.04 0.02 0.04 0.04 0.05 0.05 0.04 0.04 0.06 0.07 0.04 0.03 0.04 0.09 0.10 0.10 0.05 0.04 0.02 0.02 0.01 0.00 0.01 0.00 0.00 0.00 0.00 0.00 0.00 0.00 0.00 0.00 0.00 0.00 0.00 0.00 0.00 0.00 0.00 0.00 0.00
0.02 0.04 0.01 0.03 0.00 0.00 0.00 0.01 0.00 0.00 0.02 0.02 0.04 0.04 0.03 0.03 0.02 0.01 0.00 0.00 0.00 0.00 0.00 0.00 0.01 0.01 0.01 0.01 0.00 0.00 0.00 0.00 0.01 0.00 0.01 0.01 0.01 0.00 0.00 0.00 0.00 0.00 0.00 0.00 0.00 0.00 0.00 0.00 0.00 0.00 0.00 0.00 0.01 0.02
0.00 0.00 0.05 0.08 0.01 0.00 0.00 0.00 0.00 0.00 0.01 0.02 0.03 0.02 0.02 0.03 0.02 0.02 0.01 0.00 0.00 0.00 0.00 0.00 0.01 0.00 0.00 0.00 0.00 0.00 0.00 0.00 0.00 0.00 0.00 0.00 0.00 0.00 0.00 0.00 0.00 0.00 0.00 0.00 0.00 0.00 0.00 0.00 0.00 0.01 0.02 0.04 0.03 0.02
0.03 0.01 0.08 0.14 0.07 0.00 0.00 0.00 0.00 0.00 0.00 0.01 0.02 0.00 0.01 0.01 0.01 0.01 0.00 0.00 0.00 0.01 0.00 0.01 0.01 0.01 0.00 0.00 0.00 0.00 0.00 0.00 0.00 0.00 0.00 0.00 0.00 0.00 0.00 0.00 0.00 0.00 0.00 0.00 0.00 0.00 0.01 0.01 0.01 0.03 0.05 0.02 0.01 0.01
0.02 0.04 0.12 0.22 0.16 0.02 0.00 0.00 0.00 0.00 0.00 0.00 0.00 0.00 0.00 0.01 0.01 0.01 0.00 0.01 0.01 0.02 0.02 0.02 0.02 0.00 0.00 0.00 0.00 0.00 0.00 0.00 0.00 0.00 0.00 0.00 0.00 0.00 0.00 0.00 0.00 0.00 0.00 0.01 0.02 0.01 0.01 0.02 0.03 0.03 0.02 0.01 0.02 0.01
0.09 0.13 0.18 0.27 0.20 0.06 0.03 0.00 0.00 0.00 0.01 0.01 0.02 0.01 0.01 0.01 0.01 0.01 0.02 0.02 0.03 0.03 0.03 0.04 0.06 0.06 0.05 0.04 0.01 0.00 0.00 0.00 0.00 0.01 0.01 0.01 0.01 0.01 0.01 0.01 0.02 0.02 0.02 0.01 0.03 0.03 0.02 0.02 0.01 0.01 0.02 0.02 0.01 0.02
0.21 0.23 0.26 0.26 0.18 0.12 0.05 0.03 0.01 0.01 0.00 0.01 0.02 0.02 0.01 0.01 0.01 0.01 0.02 0.04 0.06 0.03 0.05 0.07 0.09 0.11 0.10 0.08 0.08 0.06 0.04 0.02 0.02 0.02 0.01 0.00 0.01 0.01 0.02 0.01 0.01 0.03 0.03 0.02 0.02 0.01 0.01 0.02 0.03 0.02 0.01 0.02 0.03 0.04
0.32 0.24 0.24 0.20 0.11 0.05 0.03 0.02 0.03 0.02 0.01 0.01 0.02 0.02 0.01 0.01 0.02 0.02 0.03 0.08 0.08 0.08 0.10 0.12 0.12 0.12 0.12 0.13 0.12 0.09 0.06 0.04 0.03 0.03 0.03 0.02 0.02 0.01 0.01 0.01 0.02 0.03 0.02 0.03 0.03 0.03 0.03 0.02 0.02 0.02 0.03 0.04 0.06 0.06
0.27 0.16 0.12 0.07 0.04 0.06 0.03 0.02 0.02 0.02 0.02 0.04 0.04 0.04 0.03 0.04 0.03 0.04 0.07 0.12 0.11 0.12 0.13 0.14 0.13 0.10 0.09 0.08 0.08 0.07 0.06 0.05 0.03 0.02 0.02 0.01 0.01 0.03 0.03 0.03 0.02 0.03 0.03 0.04 0.06 0.05 0.03 0.02 0.03 0.04 0.04 0.03 0.05 0.09
0.11 0.07 0.03 0.03 0.06 0.11 0.11 0.07 0.07 0.09 0.07 0.08 0.07 0.06 0.09 0.09 0.06 0.09 0.10 0.13 0.14 0.16 0.13 0.12 0.09 0.07 0.08 0.08 0.05 0.04 0.02 0.01 0.01 0.01 0.02 0.02 0.03 0.04 0.06 0.08 0.10 0.07 0.02 0.02 0.05 0.06 0.08 0.07 0.06 0.04 0.05 0.05 0.06 0.13
0.06 0.05 0.05 0.09 0.15 0.16 0.17 0.14 0.16 0.16 0.16 0.16 0.12 0.11 0.13 0.10 0.10 0.12 0.12 0.14 0.12 0.10 0.07 0.05 0.03 0.02 0.02 0.03 0.03 0.02 0.01 0.00 0.01 0.01 0.02 0.05 0.04 0.02 0.01 0.02 0.02 0.02 0.02 0.02 0.04 0.04 0.06 0.08 0.08 0.07 0.08 0.11 0.14 0.16
0.12 0.16 0.13 0.11 0.08 0.07 0.10 0.12 0.13 0.13 0.12 0.12 0.09 0.07 0.07 0.05 0.08 0.08 0.08 0.07 0.06 0.04 0.03 0.03 0.04 0.03 0.02 0.01 0.01 0.01 0.00 0.00 0.00 0.00 0.00 0.00 0.00 0.00 0.00 0.01 0.01 0.01 0.01 0.02 0.01 0.02 0.05 0.08 0.08 0.12 0.18 0.17 0.15 0.12
0.07 0.07 0.05 0.02 0.03 0.04 0.04 0.04 0.05 0.05 0.03 0.03 0.02 0.02 0.03 0.05 0.09 0.09 0.06 0.04 0.04 0.06 0.06 0.05 0.04 0.02 0.01 0.01 0.01 0.02 0.04 0.01 0.00 0.01 0.02 0.02 0.02 0.02 0.01 0.01 0.01 0.01 0.01 0.02 0.02 0.01 0.02 0.03 0.05 0.12 0.08 0.06 0.08 0.10
0.01 0.01 0.01 0.01 0.03 0.04 0.02 0.01 0.03 0.06 0.05 0.03 0.02 0.03 0.07 0.06 0.07 0.06 0.04 0.06 0.04 0.02 0.02 0.01 0.01 0.01 0.01 0.01 0.02 0.01 0.01 0.01 0.01 0.01 0.01 0.02 0.02 0.01 0.01 0.01 0.01 0.02 0.02 0.02 0.02 0.03 0.04 0.04 0.07 0.09 0.06 0.05 0.06 0.06
0.00 0.01 0.00 0.01 0.03 0.01 0.01 0.01 0.01 0.02 0.03 0.03 0.05 0.04 0.05 0.04 0.04 0.04 0.04 0.03 0.01 0.01 0.00 0.00 0.01 0.02 0.01 0.02 0.02 0.02 0.02 0.01 0.01 0.01 0.02 0.02 0.02 0.01 0.01 0.01 0.01 0.02 0.02 0.02 0.03 0.05 0.06 0.06 0.07 0.06 0.07 0.05 0.06 0.05
0.01 0.01 0.01 0.01 0.01 0.01 0.01 0.00 0.00 0.01 0.02 0.04 0.06 0.06 0.06 0.05 0.04 0.06 0.05 0.02 0.01 0.01 0.01 0.01 0.00 0.01 0.02 0.01 0.00 0.02 0.00 0.00 0.01 0.01 0.01 0.02 0.01 0.01 0.01 0.01 0.02 0.02 0.02 0.02 0.04 0.06 0.05 0.05 0.05 0.05 0.05 0.04 0.04 0.04

GFSWCAN_prec_precacc24_036.txt.gz
Total_Precipitation_Accumulation
0.12 0.10 0.21 0.29 0.31 0.18 0.11 0.14 0.17 0.14 0.15 0.13 0.06 0.06 0.07 0.02 0.03 0.21 0.14 0.12 0.13 0.04 0.00 0.00 0.00 0.00 0.00 0.00 0.01 0.00 0.00 0.00 0.00 0.00 0.00 0.00 0.00 0.00 0.00 0.00 0.00 0.00 0.00 0.00 0.00 0.00 0.00 0.00 0.00 0.00 0.00 0.00 0.00 0.00
0.23 0.25 0.33 0.29 0.29 0.19 0.11 0.13 0.16 0.14 0.16 0.10 0.03 0.05 0.04 0.01 0.04 0.22 0.21 0.10 0.17 0.07 0.00 0.00 0.00 0.00 0.00 0.00 0.00 0.00 0.00 0.00 0.00 0.00 0.01 0.02 0.00 0.00 0.00 0.00 0.00 0.00 0.00 0.00 0.00 0.00 0.00 0.00 0.00 0.00 0.00 0.00 0.00 0.00
0.52 0.33 0.30 0.29 0.24 0.15 0.13 0.13 0.14 0.15 0.13 0.05 0.04 0.06 0.04 0.02 0.06 0.26 0.21 0.15 0.44 0.08 0.03 0.00 0.00 0.00 0.00 0.00 0.00 0.00 0.00 0.00 0.00 0.00 0.00 0.00 0.01 0.00 0.00 0.00 0.00 0.00 0.00 0.00 0.00 0.00 0.00 0.00 0.00 0.00 0.00 0.00 0.00 0.00
0.72 0.45 0.31 0.29 0.19 0.14 0.12 0.13 0.12 0.12 0.08 0.03 0.05 0.05 0.03 0.03 0.12 0.28 0.15 0.11 0.10 0.02 0.07 0.01 0.00 0.00 0.00 0.00 0.00 0.00 0.00 0.00 0.00 0.00 0.00 0.01 0.01 0.00 0.00 0.00 0.00 0.00 0.00 0.00 0.00 0.00 0.00 0.00 0.00 0.00 0.00 0.00 0.00 0.00
0.74 0.57 0.40 0.25 0.14 0.11 0.11 0.10 0.09 0.08 0.09 0.06 0.06 0.03 0.02 0.04 0.09 0.13 0.09 0.06 0.08 0.05 0.04 0.01 0.00 0.00 0.00 0.00 0.00 0.00 0.00 0.00 0.00 0.00 0.01 0.01 0.00 0.00 0.00 0.00 0.00 0.00 0.00 0.00 0.00 0.00 0.00 0.00 0.00 0.00 0.00 0.00 0.00 0.00
0.74 0.54 0.38 0.15 0.07 0.06 0.08 0.11 0.13 0.14 0.08 0.05 0.05 0.02 0.02 0.04 0.06 0.05 0.09 0.04 0.05 0.01 0.01 0.01 0.00 0.00 0.00 0.00 0.00 0.00 0.00 0.00 0.00 0.00 0.00 0.00 0.00 0.00 0.00 0.00 0.00 0.00 0.00 0.00 0.00 0.00 0.00 0.00 0.00 0.00 0.00 0.00 0.00 0.00
0.64 0.48 0.38 0.21 0.08 0.07 0.08 0.11 0.13 0.10 0.02 0.03 0.07 0.05 0.05 0.09 0.10 0.12 0.08 0.03 0.03 0.01 0.03 0.02 0.01 0.00 0.00 0.00 0.00 0.00 0.00 0.00 0.00 0.00 0.00 0.00 0.00 0.00 0.00 0.02 0.00 0.00 0.00 0.00 0.00 0.00 0.00 0.00 0.00 0.00 0.00 0.00 0.00 0.00
0.49 0.39 0.29 0.20 0.13 0.09 0.07 0.10 0.13 0.07 0.04 0.04 0.07 0.08 0.09 0.13 0.10 0.07 0.03 0.01 0.01 0.01 0.01 0.02 0.01 0.01 0.01 0.01 0.00 0.00 0.02 0.03 0.01 0.00 0.01 0.00 0.00 0.00 0.01 0.00 0.00 0.00 0.00 0.00 0.00 0.00 0.00 0.00 0.00 0.00 0.00 0.00 0.00 0.02
0.31 0.17 0.10 0.10 0.10 0.11 0.09 0.11 0.09 0.06 0.04 0.04 0.05 0.06 0.08 0.10 0.10 0.02 0.01 0.01 0.00 0.05 0.04 0.01 0.01 0.01 0.01 0.00 0.01 0.00 0.01 0.00 0.00 0.00 0.01 0.00 0.00 0.00 0.00 0.00 0.00 0.00 0.00 0.00 0.00 0.00 0.00 0.01 0.01 0.00 0.01 0.03 0.10 0.26
0.14 0.07 0.02 0.03 0.03 0.06 0.10 0.09 0.07 0.07 0.04 0.05 0.04 0.06 0.14 0.05 0.01 0.01 0.00 0.03 0.04 0.01 0.00 0.00 0.01 0.01 0.01 0.01 0.01 0.01 0.00 0.00 0.00 0.00 0.00 0.00 0.00 0.00 0.00 0.00 0.00 0.00 0.00 0.00 0.00 0.00 0.02 0.04 0.05 0.09 0.16 0.20 0.22 0.19
0.16 0.11 0.05 0.03 0.02 0.04 0.05 0.05 0.04 0.04 0.09 0.12 0.11 0.05 0.05 0.02 0.03 0.01 0.01 0.04 0.05 0.00 0.00 0.00 0.00 0.00 0.00 0.01 0.01 0.00 0.00 0.00 0.00 0.00 0.00 0.00 0.00 0.00 0.00 0.00 0.00 0.00 0.00 0.00 0.00 0.01 0.04 0.10 0.25 0.25 0.16 0.09 0.06 0.02
0.14 0.10 0.06 0.03 0.03 0.04 0.01 0.06 0.04 0.01 0.03 0.18 0.13 0.09 0.10 0.14 0.13 0.10 0.06 0.01 0.01 0.00 0.00 0.00 0.00 0.00 0.00 0.00 0.00 0.00 0.00 0.00 0.00 0.00 0.01 0.02 0.02 0.01 0.01 0.01 0.00 0.00 0.00 0.02 0.07 0.15 0.18 0.18 0.13 0.09 0.04 0.02 0.01 0.01
0.16 0.11 0.11 0.07 0.04 0.03 0.01 0.03 0.03 0.04 0.05 0.11 0.23 0.31 0.31 0.41 0.40 0.30 0.12 0.04 0.02 0.00 0.00 0.00 0.00 0.00 0.00 0.00 0.06 0.11 0.15 0.09 0.03 0.05 0.06 0.10 0.08 0.08 0.10 0.08 0.09 0.10 0.11 0.13 0.10 0.09 0.07 0.04 0.01 0.00 0.01 0.00 0.00 0.00
0.09 0.08 0.09 0.08 0.08 0.08 0.05 0.04 0.02 0.03 0.04 0.10 0.21 0.37 0.36 0.35 0.20 0.15 0.07 0.04 0.05 0.04 0.02 0.01 0.00 0.01 0.02 0.05 0.25 0.38 0.42 0.25 0.26 0.15 0.10 0.18 0.29 0.29 0.10 0.01 0.01 0.01 0.01 0.01 0.00 0.00 0.00 0.00 0.00 0.00 0.00 0.00 0.00 0.00
0.01 0.02 0.03 0.05 0.07 0.09 0.09 0.05 0.03 0.01 0.09 0.14 0.08 0.15 0.14 0.07 0.06 0.04 0.03 0.04 0.07 0.10 0.14 0.18 0.20 0.19 0.20 0.32 0.31 0.31 0.30 0.28 0.25 0.27 0.27 0.25 0.29 0.16 0.02 0.01 0.01 0.03 0.03 0.01 0.00 0.00 0.00 0.00 0.00 0.00 0.00 0.00 0.00 0.00
0.00 0.00 0.01 0.02 0.05 0.06 0.05 0.02 0.02 0.05 0.16 0.22 0.12 0.06 0.04 0.03 0.05 0.06 0.09 0.12 0.15 0.20 0.21 0.21 0.22 0.24 0.31 0.29 0.20 0.21 0.24 0.29 0.31 0.12 0.04 0.05 0.08 0.08 0.07 0.06 0.09 0.08 0.02 0.00 0.00 0.00 0.00 0.00 0.00 0.00 0.00 0.00 0.00 0.00
0.00 0.01 0.00 0.00 0.00 0.01 0.01 0.01 0.03 0.08 0.11 0.10 0.13 0.10 0.06 0.05 0.07 0.09 0.09 0.08 0.09 0.10 0.10 0.07 0.08 0.10 0.10 0.14 0.19 0.19 0.22 0.15 0.06 0.03 0.02 0.02 0.02 0.01 0.00 0.00 0.00 0.00 0.00 0.00 0.00 0.00 0.00 0.00 0.00 0.00 0.00 0.00 0.00 0.00
0.01 0.01 0.00 0.00 0.00 0.00 0.00 0.01 0.03 0.01 0.02 0.06 0.06 0.08 0.05 0.06 0.06 0.06 0.06 0.05 0.05 0.06 0.08 0.05 0.03 0.07 0.11 0.12 0.11 0.05 0.05 0.03 0.02 0.01 0.01 0.01 0.01 0.01 0.01 0.00 0.00 0.00 0.00 0.00 0.00 0.00 0.00 0.00 0.00 0.00 0.00 0.00 0.00 0.00
0.00 0.01 0.00 0.02 0.00 0.00 0.00 0.00 0.01 0.02 0.04 0.04 0.07 0.06 0.04 0.05 0.04 0.02 0.01 0.01 0.02 0.04 0.05 0.06 0.08 0.07 0.07 0.05 0.04 0.01 0.00 0.00 0.01 0.01 0.01 0.01 0.01 0.00 0.01 0.00 0.00 0.00 0.00 0.00 0.00 0.00 0.00 0.00 0.00 0.00 0.00 0.00 0.00 0.01
0.00 0.00 0.00 0.04 0.01 0.00 0.00 0.00 0.00 0.00 0.02 0.03 0.04 0.04 0.03 0.04 0.03 0.01 0.01 0.00 0.00 0.00 0.01 0.04 0.07 0.07 0.06 0.05 0.02 0.01 0.00 0.00 0.00 0.00 0.01 0.01 0.01 0.00 0.00 0.00 0.00 0.00 0.00 0.00 0.00 0.00 0.00 0.00 0.00 0.00 0.00 0.01 0.01 0.01
0.00 0.00 0.00 0.05 0.06 0.00 0.00 0.00 0.00 0.00 0.01 0.01 0.02 0.01 0.01 0.01 0.01 0.01 0.00 0.00 0.00 0.01 0.03 0.04 0.04 0.02 0.02 0.02 0.01 0.00 0.00 0.00 0.00 0.00 0.00 0.01 0.00 0.00 0.00 0.00 0.00 0.00 0.00 0.00 0.00 0.00 0.00 0.00 0.00 0.01 0.01 0.01 0.01 0.01
0.00 0.01 0.02 0.06 0.11 0.02 0.00 0.00 0.00 0.00 0.00 0.01 0.00 0.00 0.01 0.02 0.02 0.01 0.01 0.01 0.02 0.05 0.05 0.05 0.05 0.02 0.01 0.01 0.02 0.04 0.04 0.03 0.02 0.01 0.01 0.01 0.02 0.01 0.01 0.01 0.01 0.00 0.00 0.00 0.01 0.01 0.00 0.01 0.01 0.01 0.01 0.01 0.01 0.01
0.01 0.02 0.05 0.05 0.10 0.05 0.02 0.00 0.00 0.00 0.01 0.01 0.02 0.01 0.01 0.01 0.01 0.01 0.02 0.03 0.04 0.06 0.06 0.05 0.08 0.08 0.07 0.06 0.02 0.01 0.02 0.02 0.04 0.05 0.05 0.04 0.04 0.03 0.02 0.02 0.01 0.02 0.01 0.01 0.02 0.02 0.01 0.01 0.00 0.01 0.02 0.01 0.01 0.01
0.04 0.09 0.12 0.10 0.10 0.10 0.04 0.03 0.02 0.02 0.00 0.01 0.02 0.02 0.01 0.01 0.01 0.02 0.03 0.06 0.08 0.04 0.06 0.08 0.10 0.13 0.11 0.09 0.09 0.09 0.08 0.05 0.05 0.05 0.05 0.03 0.03 0.03 0.01 0.01 0.01 0.01 0.01 0.01 0.01 0.00 0.00 0.01 0.03 0.02 0.01 0.01 0.02 0.03
0.07 0.08 0.12 0.11 0.07 0.04 0.02 0.02 0.03 0.02 0.02 0.01 0.02 0.02 0.02 0.01 0.02 0.02 0.04 0.10 0.08 0.09 0.11 0.14 0.13 0.13 0.14 0.15 0.14 0.12 0.10 0.07 0.06 0.06 0.06 0.04 0.03 0.02 0.00 0.00 0.00 0.01 0.00 0.01 0.02 0.02 0.02 0.01 0.00 0.00 0.01 0.03 0.05 0.05
0.12 0.10 0.09 0.05 0.04 0.06 0.03 0.02 0.02 0.02 0.02 0.05 0.05 0.04 0.03 0.05 0.04 0.05 0.08 0.14 0.13 0.13 0.14 0.15 0.15 0.11 0.10 0.10 0.09 0.09 0.08 0.08 0.06 0.04 0.05 0.02 0.03 0.03 0.02 0.01 0.01 0.01 0.00 0.02 0.04 0.03 0.01 0.00 0.01 0.02 0.03 0.02 0.03 0.06
0.10 0.07 0.03 0.03 0.06 0.11 0.11 0.07 0.08 0.09 0.07 0.09 0.08 0.06 0.10 0.11 0.07 0.10 0.11 0.14 0.15 0.16 0.14 0.12 0.09 0.08 0.09 0.08 0.06 0.05 0.03 0.01 0.01 0.02 0.02 0.02 0.02 0.01 0.01 0.02 0.03 0.02 0.01 0.01 0.02 0.03 0.04 0.03 0.03 0.02 0.03 0.03 0.05 0.10
0.05 0.05 0.06 0.09 0.15 0.16 0.18 0.15 0.16 0.17 0.17 0.16 0.13 0.11 0.13 0.11 0.12 0.13 0.13 0.15 0.13 0.11 0.08 0.05 0.03 0.02 0.03 0.04 0.03 0.02 0.01 0.00 0.00 0.01 0.02 0.04 0.01 0.00 0.00 0.00 0.00 0.00 0.00 0.00 0.01 0.01 0.02 0.04 0.05 0.04 0.06 0.08 0.11 0.12
0.12 0.16 0.13 0.11 0.08 0.07 0.10 0.12 0.13 0.14 0.12 0.12 0.10 0.08 0.07 0.06 0.10 0.10 0.09 0.08 0.07 0.05 0.04 0.04 0.05 0.04 0.03 0.01 0.01 0.01 0.00 0.00 0.00 0.00 0.00 0.00 0.00 0.00 0.00 0.00 0.00 0.00 0.00 0.00 0.00 0.00 0.01 0.05 0.05 0.10 0.15 0.13 0.12 0.10
0.07 0.06 0.05 0.02 0.03 0.05 0.05 0.05 0.06 0.06 0.03 0.03 0.03 0.02 0.03 0.06 0.10 0.09 0.06 0.05 0.05 0.06 0.07 0.05 0.04 0.02 0.01 0.01 0.01 0.01 0.02 0.01 0.00 0.00 0.01 0.01 0.01 0.01 0.01 0.01 0.01 0.01 0.01 0.01 0.01 0.01 0.00 0.01 0.02 0.08 0.06 0.05 0.08 0.09
0.01 0.01 0.01 0.01 0.03 0.04 0.02 0.01 0.05 0.06 0.05 0.03 0.03 0.02 0.05 0.06 0.07 0.06 0.04 0.07 0.04 0.03 0.03 0.01 0.01 0.01 0.00 0.00 0.01 0.00 0.01 0.01 0.01 0.01 0.01 0.01 0.01 0.01 0.01 0.01 0.01 0.02 0.01 0.01 0.01 0.01 0.03 0.02 0.04 0.06 0.04 0.04 0.06 0.06
0.00 0.01 0.00 0.01 0.03 0.01 0.01 0.01 0.01 0.04 0.04 0.04 0.05 0.04 0.05 0.04 0.04 0.05 0.04 0.04 0.02 0.01 0.00 0.01 0.01 0.01 0.01 0.01 0.01 0.01 0.01 0.01 0.00 0.01 0.02 0.02 0.01 0.01 0.01 0.01 0.01 0.02 0.02 0.01 0.01 0.03 0.04 0.03 0.04 0.04 0.05 0.05 0.05 0.05
0.01 0.01 0.01 0.01 0.01 0.01 0.01 0.01 0.00 0.01 0.03 0.04 0.07 0.06 0.06 0.05 0.05 0.06 0.05 0.02 0.01 0.01 0.01 0.01 0.01 0.01 0.01 0.00 0.00 0.01 0.00 0.00 0.00 0.01 0.01 0.02 0.01 0.01 0.01 0.01 0.01 0.01 0.01 0.01 0.02 0.03 0.03 0.03 0.03 0.04 0.04 0.04 0.04 0.03

GFSWCAN_prec_precacc24_042.txt.gz
Total_Precipitation_Accumulation
0.12 0.11 0.22 0.30 0.32 0.20 0.14 0.18 0.21 0.19 0.27 0.20 0.10 0.10 0.09 0.05 0.06 0.26 0.24 0.31 0.47 0.27 0.12 0.04 0.01 0.01 0.00 0.01 0.09 0.05 0.10 0.05 0.06 0.03 0.01 0.00 0.00 0.00 0.00 0.00 0.00 0.00 0.00 0.00 0.00 0.00 0.00 0.00 0.00 0.00 0.00 0.00 0.00 0.00
0.15 0.24 0.34 0.30 0.31 0.21 0.14 0.17 0.20 0.18 0.25 0.14 0.07 0.09 0.07 0.04 0.09 0.27 0.27 0.18 0.33 0.43 0.23 0.06 0.04 0.00 0.00 0.00 0.04 0.10 0.06 0.02 0.02 0.01 0.01 0.02 0.00 0.00 0.00 0.00 0.00 0.00 0.00 0.00 0.00 0.00 0.00 0.00 0.00 0.00 0.00 0.00 0.00 0.00
0.28 0.28 0.31 0.31 0.26 0.17 0.15 0.15 0.17 0.18 0.19 0.08 0.07 0.10 0.06 0.05 0.12 0.31 0.29 0.30 1.05 0.57 0.24 0.10 0.05 0.01 0.00 0.01 0.03 0.06 0.04 0.01 0.01 0.01 0.00 0.00 0.01 0.00 0.00 0.00 0.00 0.00 0.00 0.00 0.00 0.00 0.00 0.00 0.00 0.00 0.00 0.00 0.00 0.00
0.27 0.25 0.27 0.29 0.20 0.14 0.13 0.14 0.12 0.14 0.11 0.05 0.08 0.08 0.06 0.06 0.17 0.34 0.27 0.60 1.40 0.76 0.62 0.20 0.06 0.05 0.04 0.01 0.03 0.02 0.02 0.00 0.00 0.01 0.00 0.01 0.01 0.00 0.00 0.00 0.00 0.00 0.00 0.00 0.00 0.00 0.00 0.00 0.00 0.00 0.00 0.00 0.00 0.00
0.22 0.26 0.27 0.24 0.14 0.11 0.12 0.11 0.10 0.11 0.11 0.07 0.06 0.04 0.05 0.07 0.29 0.29 0.40 0.68 1.00 0.82 0.73 0.51 0.06 0.06 0.08 0.04 0.02 0.02 0.01 0.00 0.01 0.01 0.01 0.01 0.00 0.00 0.00 0.00 0.00 0.00 0.00 0.00 0.00 0.00 0.00 0.00 0.00 0.00 0.00 0.00 0.00 0.00
0.31 0.26 0.21 0.13 0.09 0.09 0.10 0.12 0.16 0.18 0.11 0.07 0.06 0.04 0.08 0.23 0.46 0.44 0.89 0.55 0.48 0.52 0.65 0.71 0.33 0.10 0.07 0.10 0.05 0.03 0.02 0.02 0.01 0.00 0.01 0.00 0.00 0.00 0.00 0.00 0.00 0.00 0.00 0.00 0.00 0.00 0.00 0.00 0.00 0.00 0.00 0.00 0.00 0.00
0.47 0.32 0.24 0.15 0.10 0.10 0.12 0.16 0.18 0.14 0.06 0.06 0.09 0.10 0.19 0.49 0.41 0.67 0.94 0.54 0.52 0.52 0.52 0.45 0.61 0.13 0.11 0.10 0.10 0.07 0.04 0.04 0.04 0.01 0.00 0.00 0.00 0.00 0.00 0.02 0.00 0.00 0.00 0.00 0.00 0.00 0.00 0.00 0.00 0.00 0.00 0.00 0.00 0.00
0.63 0.48 0.30 0.14 0.11 0.13 0.13 0.15 0.17 0.11 0.08 0.08 0.11 0.19 0.45 0.54 0.49 0.71 0.44 0.50 0.50 0.56 0.21 0.21 0.30 0.16 0.11 0.07 0.12 0.09 0.18 0.06 0.04 0.01 0.01 0.00 0.00 0.00 0.01 0.00 0.00 0.00 0.00 0.00 0.00 0.00 0.00 0.00 0.00 0.00 0.00 0.00 0.00 0.02
0.49 0.32 0.20 0.16 0.14 0.15 0.14 0.16 0.12 0.09 0.08 0.08 0.16 0.44 0.62 0.65 0.77 0.60 0.37 0.32 0.40 0.40 0.19 0.05 0.10 0.07 0.05 0.01 0.01 0.02 0.07 0.05 0.02 0.02 0.01 0.00 0.00 0.00 0.00 0.00 0.00 0.00 0.00 0.00 0.00 0.00 0.00 0.00 0.00 0.00 0.01 0.03 0.10 0.26
0.28 0.21 0.14 0.11 0.11 0.14 0.16 0.13 0.09 0.09 0.08 0.21 0.47 0.80 0.88 0.69 0.52 0.41 0.35 0.24 0.12 0.04 0.00 0.00 0.02 0.02 0.01 0.01 0.01 0.01 0.01 0.01 0.00 0.00 0.00 0.00 0.00 0.00 0.00 0.00 0.00 0.00 0.00 0.00 0.00 0.00 0.00 0.01 0.04 0.09 0.16 0.20 0.22 0.19
0.24 0.17 0.11 0.08 0.09 0.11 0.14 0.14 0.10 0.13 0.26 0.37 0.60 0.65 0.63 0.43 0.38 0.31 0.18 0.10 0.08 0.02 0.00 0.00 0.01 0.01 0.01 0.05 0.05 0.02 0.02 0.01 0.00 0.00 0.00 0.00 0.00 0.00 0.00 0.00 0.00 0.00 0.00 0.00 0.00 0.00 0.02 0.08 0.24 0.25 0.16 0.09 0.06 0.02
0.24 0.16 0.12 0.09 0.08 0.09 0.06 0.10 0.12 0.19 0.25 0.19 0.26 0.30 0.28 0.23 0.10 0.03 0.01 0.00 0.02 0.01 0.00 0.00 0.00 0.00 0.01 0.02 0.05 0.04 0.03 0.02 0.01 0.00 0.01 0.02 0.02 0.01 0.01 0.01 0.01 0.00 0.00 0.01 0.06 0.13 0.17 0.17 0.13 0.09 0.04 0.02 0.01 0.01
0.23 0.18 0.19 0.14 0.10 0.09 0.10 0.12 0.19 0.12 0.05 0.13 0.14 0.18 0.14 0.10 0.06 0.02 0.01 0.00 0.00 0.00 0.00 0.00 0.00 0.00 0.01 0.01 0.05 0.09 0.11 0.05 0.02 0.03 0.06 0.09 0.07 0.08 0.10 0.08 0.08 0.10 0.09 0.11 0.09 0.08 0.06 0.03 0.01 0.00 0.01 0.00 0.00 0.00
0.17 0.15 0.15 0.15 0.19 0.20 0.12 0.09 0.07 0.03 0.05 0.14 0.14 0.16 0.10 0.09 0.04 0.04 0.01 0.01 0.02 0.02 0.02 0.01 0.00 0.01 0.01 0.02 0.11 0.17 0.19 0.13 0.14 0.09 0.07 0.11 0.21 0.21 0.09 0.01 0.01 0.01 0.01 0.01 0.00 0.00 0.00 0.00 0.00 0.00 0.00 0.00 0.00 0.00
0.03 0.03 0.05 0.12 0.14 0.12 0.10 0.06 0.03 0.01 0.09 0.15 0.08 0.11 0.06 0.02 0.02 0.02 0.01 0.01 0.03 0.03 0.03 0.05 0.07 0.07 0.09 0.14 0.09 0.12 0.13 0.12 0.09 0.05 0.08 0.14 0.23 0.13 0.02 0.01 0.01 0.03 0.03 0.01 0.00 0.00 0.00 0.00 0.00 0.00 0.00 0.00 0.00 0.00
0.00 0.00 0.01 0.04 0.05 0.06 0.05 0.02 0.02 0.06 0.20 0.27 0.17 0.10 0.05 0.03 0.05 0.03 0.04 0.03 0.03 0.03 0.05 0.05 0.04 0.06 0.14 0.15 0.08 0.07 0.09 0.08 0.05 0.02 0.02 0.05 0.08 0.08 0.07 0.05 0.06 0.07 0.02 0.00 0.00 0.00 0.00 0.00 0.00 0.00 0.00 0.00 0.00 0.00
0.00 0.00 0.00 0.00 0.00 0.01 0.01 0.01 0.05 0.15 0.24 0.20 0.28 0.24 0.16 0.12 0.12 0.13 0.11 0.08 0.07 0.06 0.06 0.02 0.01 0.01 0.03 0.04 0.07 0.08 0.09 0.05 0.04 0.03 0.03 0.03 0.05 0.04 0.02 0.03 0.01 0.02 0.03 0.01 0.00 0.00 0.00 0.00 0.00 0.00 0.00 0.00 0.00 0.00
0.00 0.00 0.00 0.00 0.00 0.00 0.00 0.01 0.03 0.02 0.07 0.17 0.19 0.30 0.24 0.27 0.24 0.21 0.20 0.13 0.10 0.12 0.14 0.12 0.09 0.12 0.15 0.14 0.12 0.10 0.11 0.09 0.07 0.06 0.06 0.06 0.05 0.03 0.03 0.02 0.02 0.02 0.02 0.00 0.00 0.00 0.00 0.00 0.00 0.00 0.00 0.00 0.00 0.00
0.00 0.00 0.00 0.00 0.00 0.00 0.00 0.00 0.01 0.04 0.14 0.17 0.21 0.19 0.15 0.18 0.19 0.18 0.14 0.13 0.14 0.13 0.15 0.18 0.20 0.20 0.22 0.21 0.24 0.19 0.14 0.11 0.09 0.07 0.07 0.09 0.08 0.06 0.05 0.02 0.04 0.04 0.01 0.00 0.00 0.00 0.00 0.00 0.00 0.00 0.00 0.00 0.00 0.00
0.00 0.00 0.00 0.00 0.00 0.00 0.00 0.00 0.00 0.02 0.08 0.12 0.15 0.12 0.09 0.13 0.08 0.03 0.03 0.03 0.03 0.03 0.08 0.15 0.24 0.26 0.27 0.31 0.28 0.19 0.13 0.08 0.02 0.04 0.10 0.13 0.10 0.05 0.05 0.05 0.04 0.02 0.00 0.00 0.00 0.00 0.00 0.00 0.00 0.00 0.00 0.00 0.00 0.00
0.00 0.00 0.00 0.00 0.00 0.00 0.00 0.00 0.01 0.01 0.03 0.05 0.06 0.02 0.03 0.02 0.01 0.01 0.00 0.00 0.00 0.04 0.14 0.22 0.22 0.20 0.19 0.23 0.19 0.12 0.10 0.07 0.02 0.02 0.04 0.07 0.07 0.04 0.04 0.04 0.02 0.02 0.01 0.02 0.01 0.01 0.01 0.01 0.00 0.00 0.00 0.00 0.00 0.01
0.00 0.00 0.00 0.00 0.00 0.00 0.00 0.00 0.01 0.00 0.01 0.01 0.00 0.00 0.01 0.03 0.03 0.02 0.01 0.01 0.06 0.15 0.16 0.14 0.14 0.09 0.07 0.10 0.14 0.16 0.18 0.13 0.09 0.07 0.06 0.05 0.06 0.07 0.07 0.08 0.05 0.05 0.06 0.07 0.05 0.05 0.04 0.01 0.00 0.00 0.00 0.00 0.01 0.01
0.00 0.00 0.00 0.00 0.00 0.00 0.00 0.00 0.00 0.00 0.01 0.01 0.03 0.02 0.01 0.02 0.03 0.02 0.03 0.05 0.10 0.16 0.15 0.12 0.11 0.10 0.09 0.10 0.05 0.06 0.09 0.11 0.17 0.21 0.19 0.15 0.14 0.14 0.12 0.12 0.11 0.09 0.07 0.06 0.04 0.02 0.01 0.00 0.00 0.00 0.00 0.00 0.00 0.00
0.00 0.00 0.00 0.00 0.00 0.00 0.00 0.02 0.01 0.02 0.01 0.01 0.02 0.03 0.02 0.02 0.02 0.02 0.04 0.09 0.13 0.06 0.07 0.11 0.15 0.15 0.11 0.09 0.10 0.11 0.14 0.10 0.11 0.13 0.15 0.11 0.10 0.12 0.09 0.09 0.07 0.06 0.06 0.04 0.02 0.01 0.00 0.00 0.00 0.00 0.00 0.00 0.00 0.01
0.00 0.00 0.00 0.00 0.00 0.00 0.00 0.01 0.02 0.02 0.02 0.01 0.03 0.03 0.02 0.02 0.03 0.03 0.06 0.14 0.09 0.10 0.13 0.16 0.13 0.14 0.15 0.16 0.15 0.13 0.12 0.10 0.08 0.08 0.11 0.09 0.09 0.07 0.05 0.04 0.04 0.02 0.01 0.00 0.00 0.00 0.00 0.00 0.00 0.00 0.00 0.00 0.01 0.01
0.01 0.01 0.01 0.01 0.01 0.01 0.01 0.01 0.01 0.02 0.02 0.05 0.05 0.04 0.04 0.06 0.04 0.06 0.09 0.15 0.13 0.14 0.16 0.16 0.16 0.12 0.11 0.10 0.10 0.10 0.09 0.10 0.07 0.06 0.08 0.04 0.04 0.04 0.03 0.02 0.01 0.00 0.00 0.01 0.01 0.01 0.00 0.00 0.00 0.00 0.00 0.00 0.01 0.02
0.01 0.01 0.01 0.01 0.02 0.03 0.05 0.03 0.04 0.07 0.06 0.09 0.08 0.07 0.14 0.13 0.09 0.12 0.12 0.14 0.15 0.16 0.15 0.13 0.10 0.08 0.10 0.10 0.07 0.05 0.03 0.01 0.01 0.02 0.02 0.00 0.00 0.00 0.00 0.00 0.00 0.00 0.00 0.00 0.01 0.01 0.01 0.01 0.01 0.01 0.01 0.01 0.02 0.04
0.03 0.02 0.03 0.02 0.05 0.10 0.11 0.10 0.13 0.16 0.16 0.16 0.15 0.12 0.14 0.12 0.14 0.15 0.16 0.17 0.17 0.11 0.07 0.05 0.03 0.03 0.03 0.04 0.03 0.03 0.01 0.01 0.01 0.01 0.00 0.01 0.00 0.00 0.00 0.00 0.00 0.00 0.00 0.00 0.00 0.01 0.01 0.01 0.02 0.02 0.03 0.04 0.02 0.03
0.05 0.06 0.05 0.06 0.06 0.07 0.10 0.13 0.14 0.15 0.14 0.14 0.12 0.09 0.08 0.07 0.12 0.13 0.12 0.11 0.09 0.07 0.05 0.06 0.08 0.06 0.04 0.01 0.00 0.00 0.00 0.00 0.00 0.00 0.00 0.01 0.02 0.01 0.00 0.01 0.01 0.00 0.00 0.00 0.00 0.00 0.01 0.02 0.02 0.03 0.03 0.04 0.02 0.03
0.04 0.05 0.04 0.02 0.03 0.05 0.06 0.05 0.06 0.07 0.04 0.04 0.03 0.03 0.03 0.07 0.12 0.10 0.07 0.05 0.05 0.06 0.06 0.05 0.05 0.02 0.02 0.01 0.01 0.01 0.01 0.00 0.00 0.00 0.00 0.00 0.01 0.01 0.01 0.02 0.01 0.01 0.01 0.01 0.01 0.01 0.00 0.00 0.00 0.00 0.01 0.02 0.02 0.02
0.01 0.01 0.01 0.01 0.03 0.05 0.04 0.03 0.05 0.07 0.05 0.04 0.03 0.02 0.04 0.06 0.07 0.05 0.04 0.07 0.04 0.05 0.04 0.02 0.00 0.00 0.00 0.00 0.00 0.00 0.01 0.01 0.01 0.00 0.00 0.01 0.01 0.01 0.01 0.01 0.01 0.01 0.01 0.01 0.01 0.01 0.01 0.01 0.01 0.01 0.01 0.01 0.01 0.01
0.00 0.01 0.00 0.01 0.03 0.01 0.02 0.04 0.05 0.09 0.06 0.04 0.05 0.04 0.05 0.05 0.04 0.05 0.04 0.04 0.02 0.01 0.01 0.01 0.01 0.02 0.01 0.00 0.00 0.00 0.00 0.01 0.00 0.00 0.01 0.01 0.01 0.01 0.01 0.01 0.01 0.01 0.01 0.01 0.01 0.01 0.01 0.01 0.01 0.01 0.01 0.01 0.01 0.00
0.01 0.01 0.01 0.01 0.02 0.03 0.02 0.01 0.02 0.02 0.03 0.04 0.05 0.05 0.06 0.05 0.04 0.06 0.06 0.03 0.01 0.01 0.01 0.01 0.01 0.02 0.01 0.00 0.00 0.00 0.00 0.00 0.00 0.00 0.01 0.01 0.01 0.01 0.01 0.01 0.01 0.01 0.01 0.01 0.01 0.01 0.01 0.01 0.01 0.01 0.01 0.01 0.01 0.01

GFSWCAN_prec_precacc24_045.txt.gz
Total_Precipitation_Accumulation
0.33 0.32 0.37 0.40 0.40 0.25 0.18 0.20 0.22 0.20 0.27 0.20 0.10 0.10 0.10 0.06 0.07 0.38 0.29 0.33 0.53 0.31 0.15 0.07 0.02 0.01 0.00 0.01 0.09 0.05 0.11 0.06 0.09 0.06 0.03 0.00 0.00 0.00 0.00 0.00 0.00 0.00 0.00 0.00 0.00 0.00 0.00 0.00 0.00 0.00 0.00 0.00 0.00 0.00
0.22 0.31 0.39 0.34 0.34 0.24 0.16 0.18 0.21 0.19 0.25 0.14 0.07 0.09 0.07 0.05 0.10 0.34 0.31 0.22 0.40 0.47 0.31 0.09 0.04 0.00 0.00 0.00 0.04 0.10 0.06 0.02 0.03 0.03 0.02 0.03 0.00 0.00 0.00 0.00 0.00 0.00 0.00 0.00 0.00 0.00 0.00 0.00 0.00 0.00 0.00 0.00 0.00 0.00
0.29 0.29 0.32 0.31 0.27 0.18 0.16 0.16 0.18 0.18 0.19 0.08 0.07 0.10 0.07 0.06 0.13 0.33 0.32 0.33 1.12 0.62 0.40 0.13 0.06 0.02 0.00 0.01 0.03 0.06 0.05 0.02 0.03 0.03 0.02 0.01 0.01 0.00 0.00 0.00 0.00 0.00 0.00 0.00 0.00 0.00 0.00 0.00 0.00 0.00 0.00 0.00 0.00 0.00
0.27 0.26 0.28 0.30 0.22 0.15 0.15 0.16 0.15 0.16 0.14 0.06 0.08 0.08 0.07 0.08 0.24 0.37 0.29 0.66 1.44 0.81 0.82 0.29 0.13 0.11 0.06 0.02 0.03 0.02 0.04 0.03 0.02 0.03 0.03 0.01 0.01 0.00 0.00 0.00 0.00 0.00 0.00 0.00 0.00 0.00 0.00 0.00 0.00 0.00 0.00 0.00 0.00 0.00
0.23 0.27 0.29 0.26 0.15 0.13 0.14 0.15 0.13 0.15 0.16 0.09 0.08 0.07 0.09 0.12 0.41 0.33 0.43 0.75 1.06 0.85 0.89 0.61 0.11 0.14 0.14 0.06 0.02 0.02 0.04 0.03 0.03 0.05 0.04 0.01 0.00 0.00 0.00 0.00 0.00 0.00 0.00 0.00 0.00 0.00 0.00 0.00 0.00 0.00 0.00 0.00 0.00 0.00
0.29 0.26 0.21 0.14 0.10 0.09 0.12 0.13 0.19 0.23 0.16 0.11 0.11 0.12 0.14 0.30 0.60 0.50 0.92 0.58 0.57 0.66 0.75 0.77 0.35 0.16 0.16 0.15 0.06 0.04 0.04 0.04 0.02 0.01 0.01 0.00 0.00 0.00 0.00 0.00 0.00 0.00 0.00 0.00 0.00 0.00 0.00 0.00 0.00 0.00 0.00 0.00 0.00 0.00
0.36 0.31 0.23 0.15 0.10 0.10 0.12 0.17 0.20 0.18 0.12 0.16 0.18 0.22 0.25 0.56 0.50 0.71 0.97 0.55 0.53 0.68 0.69 0.58 0.76 0.18 0.20 0.21 0.19 0.12 0.07 0.08 0.06 0.01 0.00 0.00 0.00 0.00 0.00 0.02 0.00 0.00 0.00 0.00 0.00 0.00 0.00 0.00 0.00 0.00 0.00 0.00 0.00 0.00
0.46 0.39 0.28 0.14 0.11 0.13 0.13 0.15 0.17 0.12 0.12 0.12 0.14 0.22 0.48 0.58 0.54 0.73 0.54 0.62 0.54 0.62 0.30 0.32 0.43 0.38 0.26 0.19 0.39 0.25 0.25 0.12 0.08 0.02 0.01 0.00 0.00 0.00 0.01 0.00 0.00 0.00 0.00 0.00 0.00 0.00 0.00 0.00 0.00 0.00 0.00 0.00 0.00 0.01
0.35 0.23 0.18 0.16 0.14 0.15 0.14 0.15 0.12 0.09 0.08 0.09 0.17 0.46 0.71 0.75 0.85 0.64 0.59 0.64 0.77 0.63 0.36 0.13 0.22 0.21 0.38 0.21 0.27 0.41 0.31 0.33 0.08 0.05 0.02 0.01 0.00 0.00 0.00 0.00 0.00 0.00 0.00 0.00 0.00 0.00 0.00 0.00 0.00 0.00 0.00 0.01 0.08 0.26
0.26 0.19 0.13 0.11 0.10 0.14 0.16 0.13 0.09 0.09 0.08 0.24 0.57 0.94 1.03 0.82 0.62 0.55 0.65 0.62 0.66 0.38 0.17 0.10 0.07 0.16 0.18 0.21 0.19 0.31 0.31 0.31 0.29 0.12 0.03 0.02 0.00 0.00 0.00 0.00 0.00 0.00 0.00 0.00 0.00 0.00 0.00 0.00 0.00 0.02 0.08 0.16 0.21 0.18
0.27 0.18 0.11 0.08 0.08 0.11 0.14 0.13 0.09 0.16 0.37 0.56 0.78 0.95 0.85 0.68 0.63 0.61 0.58 0.46 0.39 0.15 0.06 0.05 0.03 0.09 0.11 0.17 0.15 0.12 0.24 0.13 0.06 0.09 0.04 0.02 0.01 0.00 0.00 0.00 0.00 0.00 0.00 0.00 0.00 0.00 0.01 0.02 0.10 0.17 0.15 0.09 0.05 0.02
0.29 0.18 0.12 0.09 0.08 0.08 0.06 0.11 0.16 0.30 0.45 0.39 0.47 0.55 0.60 0.63 0.46 0.33 0.24 0.16 0.13 0.06 0.00 0.00 0.00 0.01 0.07 0.08 0.11 0.08 0.04 0.02 0.01 0.00 0.01 0.02 0.02 0.01 0.02 0.02 0.01 0.00 0.01 0.01 0.02 0.03 0.06 0.10 0.11 0.08 0.04 0.02 0.01 0.01
0.25 0.20 0.19 0.15 0.11 0.11 0.13 0.19 0.35 0.34 0.25 0.26 0.33 0.45 0.43 0.29 0.16 0.09 0.04 0.01 0.00 0.01 0.00 0.00 0.00 0.00 0.01 0.01 0.03 0.05 0.05 0.02 0.01 0.02 0.05 0.07 0.06 0.07 0.09 0.06 0.03 0.02 0.02 0.03 0.02 0.03 0.03 0.02 0.00 0.00 0.00 0.00 0.00 0.00
0.20 0.17 0.18 0.20 0.26 0.28 0.23 0.29 0.36 0.23 0.21 0.40 0.31 0.18 0.12 0.05 0.02 0.03 0.01 0.01 0.01 0.02 0.02 0.01 0.00 0.01 0.01 0.02 0.05 0.09 0.11 0.07 0.09 0.06 0.05 0.07 0.11 0.15 0.08 0.02 0.01 0.01 0.01 0.01 0.01 0.00 0.00 0.00 0.00 0.00 0.00 0.00 0.00 0.00
0.06 0.09 0.16 0.26 0.23 0.20 0.25 0.23 0.11 0.09 0.22 0.28 0.11 0.10 0.05 0.03 0.03 0.03 0.02 0.01 0.02 0.01 0.00 0.01 0.02 0.03 0.10 0.09 0.06 0.05 0.07 0.07 0.04 0.02 0.03 0.06 0.12 0.07 0.02 0.01 0.00 0.01 0.01 0.00 0.00 0.00 0.01 0.01 0.00 0.00 0.00 0.00 0.00 0.00
0.07 0.05 0.05 0.11 0.11 0.11 0.09 0.03 0.02 0.07 0.20 0.27 0.18 0.11 0.07 0.04 0.06 0.05 0.05 0.04 0.03 0.02 0.03 0.02 0.02 0.02 0.09 0.10 0.06 0.04 0.05 0.03 0.01 0.01 0.02 0.04 0.07 0.05 0.03 0.01 0.01 0.01 0.01 0.01 0.02 0.02 0.02 0.01 0.00 0.00 0.00 0.00 0.00 0.00
0.03 0.01 0.01 0.01 0.01 0.02 0.01 0.01 0.06 0.15 0.24 0.21 0.33 0.29 0.20 0.16 0.16 0.16 0.14 0.11 0.08 0.06 0.06 0.02 0.02 0.03 0.03 0.03 0.05 0.06 0.07 0.04 0.03 0.02 0.02 0.03 0.05 0.04 0.02 0.04 0.03 0.04 0.05 0.02 0.01 0.01 0.00 0.00 0.00 0.00 0.00 0.00 0.00 0.00
0.01 0.01 0.01 0.00 0.00 0.00 0.00 0.01 0.04 0.02 0.09 0.22 0.26 0.39 0.30 0.34 0.31 0.29 0.27 0.18 0.15 0.15 0.14 0.13 0.10 0.13 0.16 0.14 0.13 0.15 0.15 0.14 0.12 0.12 0.11 0.10 0.08 0.07 0.06 0.05 0.05 0.05 0.04 0.02 0.01 0.00 0.00 0.00 0.00 0.00 0.00 0.00 0.00 0.00
0.00 0.00 0.00 0.00 0.00 0.00 0.00 0.00 0.01 0.06 0.20 0.25 0.29 0.26 0.20 0.24 0.25 0.24 0.19 0.17 0.17 0.15 0.16 0.21 0.23 0.25 0.27 0.27 0.32 0.29 0.26 0.23 0.22 0.17 0.14 0.15 0.13 0.11 0.11 0.09 0.10 0.09 0.05 0.02 0.01 0.00 0.00 0.00 0.00 0.00 0.00 0.00 0.00 0.00
0.00 0.00 0.00 0.00 0.00 0.00 0.00 0.00 0.00 0.03 0.11 0.18 0.20 0.13 0.10 0.16 0.10 0.02 0.03 0.03 0.03 0.03 0.09 0.18 0.30 0.34 0.36 0.41 0.40 0.32 0.27 0.21 0.09 0.08 0.17 0.23 0.21 0.14 0.14 0.12 0.10 0.07 0.04 0.03 0.02 0.01 0.00 0.00 0.00 0.00 0.00 0.00 0.00 0.00
0.00 0.00 0.00 0.00 0.00 0.00 0.00 0.00 0.01 0.02 0.05 0.07 0.08 0.02 0.04 0.02 0.01 0.01 0.00 0.00 0.00 0.06 0.20 0.31 0.31 0.29 0.29 0.33 0.28 0.21 0.17 0.14 0.08 0.08 0.09 0.13 0.16 0.11 0.12 0.12 0.08 0.06 0.04 0.04 0.03 0.03 0.04 0.04 0.03 0.01 0.00 0.00 0.00 0.00
0.00 0.00 0.00 0.00 0.00 0.00 0.00 0.00 0.01 0.01 0.01 0.02 0.00 0.00 0.01 0.03 0.02 0.02 0.01 0.01 0.08 0.20 0.24 0.21 0.20 0.15 0.12 0.15 0.20 0.22 0.26 0.20 0.15 0.12 0.11 0.09 0.11 0.12 0.13 0.14 0.10 0.11 0.12 0.12 0.10 0.09 0.07 0.04 0.03 0.02 0.01 0.00 0.00 0.00
0.00 0.00 0.00 0.00 0.00 0.00 0.00 0.00 0.00 0.00 0.01 0.01 0.02 0.01 0.02 0.02 0.04 0.02 0.03 0.06 0.12 0.21 0.21 0.15 0.13 0.12 0.12 0.14 0.08 0.08 0.12 0.14 0.21 0.26 0.24 0.20 0.19 0.19 0.17 0.18 0.16 0.13 0.12 0.11 0.08 0.07 0.05 0.04 0.02 0.01 0.00 0.00 0.00 0.00
0.00 0.00 0.00 0.00 0.00 0.00 0.00 0.00 0.00 0.01 0.01 0.01 0.02 0.03 0.03 0.03 0.02 0.02 0.04 0.10 0.16 0.09 0.08 0.12 0.15 0.15 0.11 0.10 0.10 0.12 0.15 0.11 0.12 0.15 0.19 0.14 0.12 0.16 0.13 0.12 0.10 0.09 0.09 0.07 0.05 0.03 0.02 0.01 0.00 0.00 0.00 0.00 0.00 0.00
0.00 0.00 0.00 0.00 0.00 0.00 0.00 0.00 0.01 0.01 0.02 0.01 0.02 0.03 0.03 0.02 0.03 0.03 0.06 0.15 0.09 0.10 0.13 0.16 0.13 0.14 0.15 0.16 0.15 0.14 0.12 0.10 0.08 0.08 0.12 0.10 0.09 0.08 0.06 0.05 0.05 0.03 0.01 0.00 0.00 0.00 0.00 0.00 0.00 0.00 0.00 0.00 0.01 0.01
0.01 0.02 0.01 0.01 0.01 0.01 0.01 0.01 0.01 0.02 0.02 0.03 0.04 0.05 0.04 0.06 0.04 0.07 0.09 0.14 0.12 0.13 0.16 0.16 0.16 0.11 0.10 0.10 0.09 0.10 0.09 0.10 0.07 0.06 0.08 0.04 0.05 0.05 0.04 0.03 0.01 0.00 0.00 0.01 0.00 0.00 0.00 0.00 0.00 0.00 0.00 0.00 0.01 0.02
0.01 0.01 0.01 0.01 0.01 0.02 0.02 0.01 0.01 0.03 0.04 0.07 0.07 0.06 0.12 0.12 0.09 0.12 0.12 0.13 0.14 0.15 0.15 0.14 0.10 0.08 0.09 0.09 0.07 0.06 0.03 0.01 0.01 0.02 0.01 0.00 0.00 0.00 0.00 0.00 0.00 0.00 0.00 0.00 0.00 0.00 0.01 0.01 0.01 0.00 0.01 0.01 0.02 0.02
0.02 0.01 0.02 0.01 0.02 0.04 0.06 0.04 0.06 0.09 0.11 0.11 0.13 0.09 0.12 0.12 0.14 0.16 0.17 0.18 0.17 0.11 0.07 0.05 0.03 0.02 0.03 0.03 0.04 0.03 0.02 0.01 0.00 0.00 0.00 0.01 0.00 0.00 0.00 0.01 0.00 0.00 0.00 0.01 0.01 0.01 0.01 0.01 0.02 0.02 0.02 0.02 0.01 0.01
0.03 0.03 0.02 0.02 0.02 0.04 0.07 0.09 0.10 0.11 0.11 0.12 0.11 0.09 0.08 0.08 0.13 0.13 0.13 0.11 0.09 0.07 0.05 0.06 0.08 0.06 0.04 0.01 0.00 0.00 0.00 0.00 0.00 0.00 0.00 0.01 0.02 0.01 0.00 0.01 0.01 0.01 0.01 0.00 0.00 0.00 0.01 0.02 0.02 0.01 0.01 0.01 0.01 0.02
0.01 0.02 0.02 0.01 0.02 0.05 0.06 0.04 0.05 0.06 0.03 0.03 0.03 0.03 0.03 0.08 0.13 0.10 0.08 0.06 0.05 0.06 0.06 0.05 0.04 0.02 0.02 0.01 0.01 0.01 0.01 0.00 0.00 0.00 0.00 0.00 0.01 0.01 0.01 0.02 0.01 0.01 0.01 0.01 0.01 0.01 0.00 0.00 0.00 0.00 0.01 0.01 0.01 0.02
0.00 0.01 0.01 0.01 0.03 0.06 0.04 0.03 0.05 0.06 0.05 0.03 0.03 0.02 0.04 0.06 0.07 0.05 0.05 0.07 0.04 0.04 0.04 0.02 0.00 0.00 0.00 0.00 0.00 0.00 0.02 0.01 0.01 0.00 0.00 0.01 0.01 0.01 0.01 0.01 0.01 0.01 0.01 0.01 0.01 0.01 0.01 0.01 0.01 0.01 0.01 0.01 0.01 0.01
0.00 0.01 0.00 0.01 0.03 0.03 0.03 0.05 0.07 0.09 0.07 0.04 0.05 0.03 0.05 0.05 0.04 0.04 0.04 0.04 0.02 0.01 0.01 0.01 0.01 0.02 0.01 0.00 0.00 0.01 0.01 0.01 0.00 0.00 0.01 0.01 0.01 0.01 0.01 0.01 0.01 0.01 0.01 0.01 0.01 0.01 0.01 0.01 0.01 0.01 0.01 0.01 0.01 0.00
0.01 0.01 0.01 0.01 0.02 0.04 0.02 0.03 0.03 0.03 0.03 0.04 0.05 0.05 0.05 0.04 0.04 0.06 0.06 0.02 0.01 0.01 0.01 0.01 0.02 0.03 0.01 0.00 0.00 0.00 0.00 0.00 0.00 0.00 0.01 0.01 0.01 0.01 0.01 0.01 0.01 0.01 0.01 0.01 0.01 0.01 0.01 0.01 0.01 0.01 0.01 0.01 0.01 0.01

GFSWCAN_prec_precacc24_048.txt.gz
Total_Precipitation_Accumulation
0.44 0.43 0.48 0.54 0.56 0.40 0.33 0.33 0.33 0.26 0.32 0.21 0.11 0.11 0.11 0.07 0.09 0.42 0.42 0.46 0.59 0.36 0.16 0.10 0.04 0.01 0.00 0.01 0.09 0.05 0.11 0.06 0.09 0.06 0.03 0.02 0.01 0.00 0.00 0.00 0.00 0.00 0.00 0.00 0.00 0.00 0.00 0.00 0.00 0.00 0.00 0.00 0.00 0.00
0.32 0.43 0.54 0.52 0.50 0.38 0.30 0.31 0.30 0.22 0.27 0.15 0.07 0.10 0.09 0.07 0.13 0.41 0.46 0.46 0.53 0.50 0.34 0.10 0.05 0.01 0.00 0.00 0.04 0.10 0.06 0.02 0.03 0.04 0.02 0.04 0.01 0.00 0.00 0.00 0.00 0.00 0.00 0.00 0.00 0.00 0.00 0.00 0.00 0.00 0.00 0.00 0.00 0.00
0.32 0.35 0.41 0.41 0.37 0.29 0.26 0.25 0.23 0.19 0.19 0.08 0.07 0.11 0.09 0.08 0.16 0.39 0.44 0.53 1.41 0.66 0.41 0.14 0.07 0.05 0.01 0.01 0.03 0.06 0.05 0.02 0.03 0.03 0.03 0.03 0.02 0.00 0.00 0.00 0.00 0.00 0.00 0.00 0.00 0.00 0.00 0.00 0.00 0.00 0.00 0.00 0.00 0.00
0.28 0.27 0.29 0.32 0.25 0.18 0.19 0.20 0.16 0.15 0.13 0.06 0.09 0.10 0.11 0.12 0.26 0.39 0.35 0.81 1.66 0.84 0.82 0.29 0.14 0.14 0.07 0.03 0.03 0.02 0.04 0.04 0.05 0.06 0.06 0.04 0.02 0.01 0.00 0.00 0.00 0.00 0.00 0.00 0.00 0.00 0.00 0.00 0.00 0.00 0.00 0.00 0.00 0.00
0.23 0.27 0.29 0.26 0.16 0.14 0.15 0.15 0.13 0.15 0.16 0.09 0.09 0.08 0.12 0.16 0.43 0.34 0.46 0.91 1.16 0.89 0.91 0.62 0.11 0.16 0.17 0.11 0.05 0.04 0.04 0.03 0.05 0.09 0.07 0.03 0.01 0.01 0.00 0.00 0.00 0.00 0.00 0.00 0.00 0.00 0.00 0.00 0.00 0.00 0.00 0.00 0.00 0.00
0.31 0.28 0.22 0.14 0.11 0.11 0.14 0.15 0.20 0.24 0.16 0.11 0.12 0.12 0.15 0.31 0.62 0.53 0.99 0.66 0.64 0.70 0.78 0.78 0.36 0.16 0.19 0.23 0.13 0.09 0.05 0.04 0.04 0.04 0.04 0.01 0.01 0.01 0.00 0.00 0.00 0.00 0.00 0.00 0.00 0.00 0.00 0.00 0.00 0.00 0.00 0.00 0.00 0.00
0.37 0.31 0.23 0.15 0.10 0.11 0.14 0.19 0.24 0.20 0.13 0.16 0.19 0.24 0.26 0.58 0.52 0.73 1.01 0.57 0.54 0.80 0.89 0.63 0.77 0.18 0.25 0.31 0.27 0.15 0.08 0.08 0.07 0.02 0.01 0.00 0.01 0.03 0.01 0.02 0.00 0.00 0.00 0.00 0.00 0.00 0.00 0.00 0.00 0.00 0.00 0.00 0.00 0.00
0.46 0.39 0.28 0.14 0.11 0.13 0.14 0.17 0.20 0.14 0.14 0.20 0.29 0.27 0.51 0.62 0.58 0.74 0.56 0.64 0.54 0.70 0.49 0.40 0.44 0.39 0.30 0.36 0.48 0.29 0.28 0.13 0.10 0.03 0.01 0.00 0.00 0.00 0.01 0.00 0.00 0.00 0.00 0.00 0.00 0.00 0.00 0.00 0.00 0.00 0.00 0.00 0.00 0.01
0.32 0.21 0.17 0.16 0.14 0.14 0.14 0.16 0.13 0.11 0.14 0.19 0.24 0.53 0.80 0.86 0.89 0.66 0.72 0.71 0.78 0.65 0.42 0.16 0.23 0.21 0.43 0.34 0.43 0.47 0.37 0.38 0.11 0.07 0.02 0.02 0.01 0.00 0.00 0.00 0.00 0.00 0.00 0.00 0.00 0.00 0.00 0.00 0.00 0.00 0.00 0.01 0.04 0.14
0.18 0.15 0.13 0.11 0.10 0.14 0.16 0.13 0.09 0.09 0.10 0.27 0.63 1.00 1.10 0.83 0.65 0.76 0.98 0.76 0.71 0.41 0.20 0.12 0.07 0.16 0.28 0.54 0.31 0.37 0.34 0.38 0.44 0.18 0.10 0.05 0.00 0.00 0.00 0.00 0.00 0.00 0.00 0.00 0.00 0.00 0.00 0.00 0.00 0.01 0.03 0.05 0.09 0.11
0.16 0.12 0.09 0.08 0.08 0.11 0.14 0.13 0.09 0.16 0.38 0.58 0.84 1.06 0.89 0.75 0.71 0.82 0.80 0.59 0.46 0.19 0.07 0.07 0.06 0.11 0.18 0.38 0.48 0.29 0.43 0.27 0.22 0.34 0.28 0.23 0.08 0.00 0.00 0.00 0.00 0.00 0.00 0.00 0.00 0.00 0.01 0.01 0.03 0.04 0.05 0.03 0.02 0.01
0.23 0.13 0.08 0.07 0.08 0.08 0.05 0.11 0.16 0.31 0.47 0.57 0.74 0.69 0.74 0.69 0.49 0.38 0.35 0.29 0.20 0.09 0.02 0.08 0.06 0.06 0.24 0.35 0.48 0.50 0.31 0.29 0.17 0.08 0.18 0.17 0.08 0.06 0.05 0.04 0.02 0.01 0.01 0.01 0.01 0.01 0.02 0.03 0.03 0.02 0.01 0.01 0.01 0.00
0.24 0.18 0.18 0.14 0.11 0.11 0.12 0.18 0.37 0.49 0.65 0.64 0.40 0.52 0.50 0.36 0.25 0.18 0.14 0.09 0.06 0.04 0.04 0.08 0.07 0.08 0.09 0.26 0.35 0.26 0.19 0.12 0.10 0.09 0.07 0.05 0.06 0.11 0.10 0.05 0.01 0.00 0.00 0.00 0.00 0.00 0.00 0.00 0.00 0.00 0.00 0.00 0.00 0.00
0.21 0.18 0.19 0.21 0.27 0.28 0.23 0.34 0.54 0.66 0.64 0.55 0.43 0.29 0.24 0.15 0.10 0.09 0.06 0.03 0.03 0.04 0.04 0.04 0.02 0.02 0.01 0.03 0.08 0.11 0.11 0.07 0.08 0.05 0.03 0.02 0.04 0.08 0.06 0.01 0.01 0.01 0.00 0.01 0.00 0.00 0.00 0.00 0.00 0.00 0.00 0.00 0.00 0.00
0.07 0.10 0.19 0.30 0.26 0.27 0.43 0.49 0.45 0.52 0.57 0.44 0.23 0.17 0.11 0.10 0.10 0.08 0.04 0.02 0.03 0.01 0.01 0.01 0.02 0.03 0.06 0.05 0.04 0.03 0.05 0.04 0.03 0.01 0.01 0.01 0.04 0.04 0.03 0.01 0.00 0.00 0.00 0.00 0.00 0.00 0.01 0.01 0.01 0.01 0.00 0.00 0.00 0.00
0.11 0.09 0.13 0.23 0.31 0.39 0.35 0.24 0.33 0.35 0.23 0.28 0.21 0.15 0.10 0.06 0.08 0.06 0.07 0.06 0.05 0.03 0.02 0.02 0.01 0.01 0.07 0.05 0.04 0.03 0.04 0.04 0.04 0.03 0.02 0.02 0.04 0.04 0.02 0.01 0.01 0.01 0.01 0.02 0.03 0.04 0.04 0.03 0.01 0.00 0.00 0.00 0.00 0.00
0.09 0.05 0.17 0.16 0.18 0.12 0.10 0.08 0.09 0.16 0.24 0.22 0.37 0.34 0.23 0.19 0.19 0.19 0.16 0.14 0.10 0.06 0.06 0.02 0.03 0.04 0.05 0.05 0.07 0.08 0.10 0.08 0.06 0.04 0.03 0.04 0.05 0.04 0.03 0.06 0.07 0.10 0.10 0.07 0.06 0.06 0.04 0.01 0.00 0.00 0.00 0.00 0.00 0.00
0.16 0.09 0.09 0.06 0.07 0.08 0.08 0.11 0.05 0.02 0.10 0.26 0.30 0.45 0.32 0.37 0.34 0.31 0.31 0.23 0.18 0.16 0.15 0.15 0.11 0.14 0.17 0.15 0.15 0.18 0.21 0.21 0.21 0.21 0.19 0.18 0.15 0.14 0.15 0.13 0.14 0.12 0.10 0.08 0.05 0.04 0.04 0.03 0.01 0.00 0.00 0.00 0.00 0.00
0.08 0.06 0.06 0.04 0.05 0.03 0.00 0.00 0.01 0.07 0.23 0.29 0.34 0.29 0.20 0.25 0.27 0.27 0.22 0.22 0.22 0.18 0.19 0.24 0.24 0.27 0.31 0.31 0.36 0.33 0.33 0.34 0.33 0.27 0.23 0.24 0.22 0.20 0.20 0.18 0.17 0.16 0.10 0.07 0.05 0.04 0.03 0.02 0.00 0.00 0.00 0.00 0.00 0.00
0.00 0.00 0.00 0.00 0.00 0.00 0.00 0.00 0.00 0.03 0.15 0.23 0.24 0.15 0.11 0.16 0.10 0.02 0.03 0.03 0.03 0.04 0.12 0.21 0.36 0.41 0.43 0.48 0.48 0.41 0.38 0.33 0.17 0.14 0.24 0.31 0.31 0.22 0.23 0.20 0.16 0.13 0.09 0.08 0.07 0.05 0.03 0.01 0.01 0.01 0.00 0.01 0.01 0.01
0.00 0.00 0.00 0.00 0.00 0.00 0.00 0.00 0.02 0.03 0.07 0.11 0.12 0.03 0.04 0.02 0.01 0.00 0.00 0.00 0.00 0.08 0.25 0.38 0.39 0.37 0.38 0.43 0.37 0.30 0.26 0.20 0.14 0.12 0.15 0.19 0.24 0.17 0.18 0.19 0.15 0.12 0.09 0.09 0.07 0.08 0.07 0.08 0.07 0.04 0.03 0.02 0.01 0.01
0.00 0.00 0.00 0.00 0.00 0.00 0.00 0.00 0.02 0.01 0.01 0.03 0.01 0.01 0.01 0.03 0.02 0.02 0.01 0.01 0.10 0.25 0.31 0.28 0.27 0.22 0.18 0.21 0.28 0.29 0.33 0.26 0.20 0.17 0.16 0.13 0.15 0.16 0.19 0.22 0.16 0.16 0.17 0.17 0.14 0.13 0.11 0.07 0.05 0.04 0.03 0.03 0.02 0.02
0.00 0.00 0.00 0.00 0.00 0.00 0.00 0.00 0.00 0.00 0.01 0.01 0.01 0.01 0.02 0.02 0.03 0.01 0.03 0.06 0.14 0.25 0.25 0.19 0.17 0.16 0.16 0.19 0.12 0.11 0.16 0.17 0.25 0.31 0.29 0.24 0.23 0.24 0.21 0.22 0.20 0.16 0.14 0.15 0.11 0.09 0.08 0.06 0.05 0.03 0.02 0.02 0.01 0.01
0.00 0.00 0.00 0.00 0.00 0.00 0.00 0.00 0.00 0.01 0.00 0.01 0.01 0.03 0.04 0.04 0.01 0.02 0.04 0.10 0.17 0.11 0.09 0.13 0.16 0.15 0.12 0.10 0.10 0.13 0.16 0.12 0.14 0.17 0.21 0.15 0.13 0.17 0.14 0.13 0.12 0.11 0.11 0.09 0.06 0.05 0.03 0.02 0.01 0.00 0.00 0.00 0.00 0.00
0.00 0.00 0.00 0.00 0.00 0.00 0.00 0.00 0.01 0.01 0.01 0.01 0.02 0.04 0.03 0.02 0.02 0.03 0.06 0.15 0.09 0.09 0.13 0.16 0.12 0.13 0.15 0.16 0.15 0.14 0.13 0.10 0.08 0.08 0.13 0.10 0.10 0.08 0.06 0.05 0.05 0.03 0.01 0.00 0.00 0.00 0.00 0.00 0.00 0.00 0.00 0.00 0.00 0.01
0.01 0.02 0.01 0.01 0.01 0.01 0.01 0.01 0.01 0.02 0.02 0.02 0.03 0.04 0.04 0.04 0.03 0.07 0.09 0.13 0.11 0.12 0.14 0.16 0.16 0.10 0.09 0.09 0.09 0.09 0.09 0.10 0.07 0.06 0.08 0.04 0.05 0.05 0.04 0.03 0.01 0.01 0.00 0.00 0.00 0.00 0.00 0.00 0.00 0.00 0.00 0.00 0.01 0.02
0.01 0.01 0.01 0.01 0.01 0.01 0.01 0.01 0.01 0.02 0.03 0.05 0.05 0.04 0.09 0.08 0.07 0.12 0.12 0.13 0.13 0.14 0.14 0.13 0.10 0.07 0.09 0.09 0.08 0.06 0.03 0.01 0.01 0.02 0.01 0.00 0.00 0.00 0.00 0.00 0.00 0.01 0.00 0.00 0.01 0.01 0.01 0.01 0.01 0.01 0.01 0.01 0.01 0.02
0.02 0.01 0.01 0.01 0.01 0.01 0.02 0.02 0.03 0.06 0.06 0.06 0.09 0.05 0.06 0.07 0.13 0.15 0.16 0.18 0.16 0.10 0.06 0.04 0.03 0.02 0.03 0.03 0.04 0.04 0.02 0.01 0.00 0.00 0.00 0.01 0.00 0.00 0.00 0.01 0.01 0.00 0.00 0.01 0.00 0.01 0.01 0.02 0.02 0.02 0.02 0.01 0.01 0.01
0.01 0.01 0.01 0.00 0.01 0.01 0.04 0.05 0.05 0.06 0.06 0.06 0.08 0.06 0.06 0.07 0.13 0.13 0.13 0.11 0.09 0.06 0.05 0.05 0.08 0.06 0.03 0.01 0.00 0.00 0.00 0.00 0.00 0.00 0.00 0.01 0.02 0.01 0.00 0.01 0.01 0.01 0.01 0.00 0.00 0.00 0.01 0.03 0.03 0.02 0.01 0.01 0.01 0.02
0.01 0.01 0.01 0.01 0.02 0.04 0.06 0.04 0.04 0.04 0.01 0.02 0.03 0.03 0.04 0.09 0.13 0.11 0.08 0.05 0.05 0.05 0.05 0.04 0.04 0.02 0.02 0.01 0.01 0.01 0.01 0.00 0.00 0.00 0.00 0.00 0.01 0.01 0.01 0.02 0.01 0.01 0.01 0.01 0.01 0.01 0.00 0.01 0.00 0.00 0.01 0.01 0.01 0.02
0.00 0.01 0.01 0.01 0.04 0.06 0.04 0.03 0.05 0.05 0.03 0.02 0.03 0.02 0.03 0.06 0.08 0.05 0.04 0.07 0.03 0.04 0.03 0.02 0.00 0.00 0.00 0.00 0.00 0.00 0.01 0.01 0.01 0.00 0.00 0.01 0.01 0.01 0.02 0.01 0.01 0.01 0.01 0.01 0.01 0.01 0.01 0.01 0.01 0.01 0.01 0.01 0.01 0.01
0.00 0.01 0.00 0.01 0.04 0.04 0.03 0.06 0.07 0.09 0.06 0.04 0.04 0.03 0.05 0.05 0.04 0.04 0.04 0.04 0.02 0.01 0.01 0.01 0.01 0.02 0.01 0.00 0.00 0.01 0.01 0.01 0.00 0.01 0.01 0.01 0.01 0.01 0.01 0.01 0.01 0.02 0.02 0.01 0.01 0.01 0.01 0.01 0.01 0.01 0.01 0.01 0.01 0.01
0.01 0.01 0.00 0.01 0.03 0.04 0.03 0.04 0.04 0.03 0.03 0.03 0.04 0.04 0.05 0.04 0.04 0.06 0.05 0.02 0.01 0.01 0.01 0.01 0.02 0.03 0.01 0.00 0.00 0.00 0.00 0.00 0.00 0.01 0.01 0.01 0.01 0.01 0.01 0.01 0.01 0.01 0.01 0.01 0.01 0.01 0.01 0.01 0.01 0.01 0.01 0.01 0.01 0.01